Wetterdaten: Freitag, 12.08.2016
Datum Zeit Temp. A. Feuchte A. Luftdruck Regen Wind Richtung Richtung Sonnenschein ET UV Solar Taupunkt Windchill Windben Empfang
12.08.2016 00:00 10,2 C 89 % 1023,1 hPa 0,0 l/m 5,7 km/h (1 Bft) SW 215 0 min 0,000 mm 0,0 UV-I 0 W/m 8,5 C 10,2 C 8,0 km/h (2 Bft) 100,00 %
12.08.2016 00:02 10,2 C 89 % 1023,1 hPa 0,0 l/m 5,7 km/h (1 Bft) S-SW 209 0 min 0,000 mm 0,0 UV-I 0 W/m 8,5 C 10,2 C 8,0 km/h (2 Bft) 100,00 %
12.08.2016 00:04 10,2 C 89 % 1023,1 hPa 0,0 l/m 5,6 km/h (1 Bft) S-SW 196 0 min 0,000 mm 0,0 UV-I 0 W/m 8,5 C 10,2 C 8,0 km/h (2 Bft) 93,62 %
12.08.2016 00:06 10,2 C 88 % 1023,1 hPa 0,0 l/m 5,9 km/h (2 Bft) S-SW 202 0 min 0,000 mm 0,0 UV-I 0 W/m 8,3 C 10,2 C 9,7 km/h (2 Bft) 97,87 %
12.08.2016 00:08 10,2 C 88 % 1023,0 hPa 0,0 l/m 6,8 km/h (2 Bft) S-SW 193 0 min 0,000 mm 0,0 UV-I 0 W/m 8,3 C 9,9 C 9,7 km/h (2 Bft) 97,92 %
12.08.2016 00:10 10,2 C 88 % 1023,0 hPa 0,0 l/m 7,1 km/h (2 Bft) S 190 0 min 0,000 mm 0,0 UV-I 0 W/m 8,3 C 9,7 C 9,7 km/h (2 Bft) 97,87 %
12.08.2016 00:12 10,2 C 88 % 1023,1 hPa 0,0 l/m 7,2 km/h (2 Bft) S-SO 168 0 min 0,000 mm 0,0 UV-I 0 W/m 8,3 C 9,6 C 11,3 km/h (2 Bft) 100,00 %
12.08.2016 00:14 10,2 C 88 % 1023,1 hPa 0,0 l/m 6,4 km/h (2 Bft) S-SW 202 0 min 0,000 mm 0,0 UV-I 0 W/m 8,3 C 10,2 C 9,7 km/h (2 Bft) 100,00 %
12.08.2016 00:16 10,2 C 87 % 1023,1 hPa 0,0 l/m 7,1 km/h (2 Bft) S-SW 194 0 min 0,000 mm 0,0 UV-I 0 W/m 8,1 C 9,7 C 9,7 km/h (2 Bft) 100,00 %
12.08.2016 00:18 10,2 C 87 % 1023,1 hPa 0,0 l/m 6,4 km/h (2 Bft) S 191 0 min 0,000 mm 0,0 UV-I 0 W/m 8,1 C 10,2 C 8,0 km/h (2 Bft) 100,00 %
12.08.2016 00:20 10,3 C 87 % 1023,1 hPa 0,0 l/m 7,2 km/h (2 Bft) S 173 0 min 0,000 mm 0,0 UV-I 0 W/m 8,2 C 9,7 C 11,3 km/h (2 Bft) 100,00 %
12.08.2016 00:22 10,3 C 87 % 1023,1 hPa 0,0 l/m 6,8 km/h (2 Bft) S 191 0 min 0,000 mm 0,0 UV-I 0 W/m 8,2 C 10,0 C 9,7 km/h (2 Bft) 100,00 %
12.08.2016 00:24 10,3 C 87 % 1023,0 hPa 0,0 l/m 8,1 km/h (2 Bft) S-SO 164 0 min 0,000 mm 0,0 UV-I 0 W/m 8,2 C 9,1 C 11,3 km/h (2 Bft) 100,00 %
12.08.2016 00:26 10,3 C 86 % 1023,1 hPa 0,0 l/m 8,1 km/h (2 Bft) S 184 0 min 0,000 mm 0,0 UV-I 0 W/m 8,1 C 9,1 C 12,9 km/h (3 Bft) 100,00 %
12.08.2016 00:28 10,3 C 86 % 1023,1 hPa 0,0 l/m 7,5 km/h (2 Bft) S-SO 159 0 min 0,000 mm 0,0 UV-I 0 W/m 8,1 C 9,5 C 12,9 km/h (3 Bft) 97,87 %
12.08.2016 00:30 10,3 C 87 % 1023,1 hPa 0,0 l/m 7,6 km/h (2 Bft) S 172 0 min 0,000 mm 0,0 UV-I 0 W/m 8,2 C 9,4 C 11,3 km/h (2 Bft) 100,00 %
12.08.2016 00:32 10,3 C 87 % 1023,2 hPa 0,0 l/m 8,0 km/h (2 Bft) S 175 0 min 0,000 mm 0,0 UV-I 0 W/m 8,2 C 9,2 C 11,3 km/h (2 Bft) 100,00 %
12.08.2016 00:34 10,3 C 87 % 1023,2 hPa 0,0 l/m 7,1 km/h (2 Bft) S 190 0 min 0,000 mm 0,0 UV-I 0 W/m 8,2 C 9,8 C 9,7 km/h (2 Bft) 100,00 %
12.08.2016 00:36 10,2 C 87 % 1023,1 hPa 0,0 l/m 7,4 km/h (2 Bft) S-SW 205 0 min 0,000 mm 0,0 UV-I 0 W/m 8,1 C 9,5 C 11,3 km/h (2 Bft) 95,74 %
12.08.2016 00:38 10,2 C 87 % 1023,1 hPa 0,0 l/m 6,3 km/h (2 Bft) S 174 0 min 0,000 mm 0,0 UV-I 0 W/m 8,1 C 10,2 C 11,3 km/h (2 Bft) 97,87 %
12.08.2016 00:40 10,2 C 87 % 1023,1 hPa 0,0 l/m 6,7 km/h (2 Bft) S-SO 160 0 min 0,000 mm 0,0 UV-I 0 W/m 8,1 C 10,0 C 11,3 km/h (2 Bft) 100,00 %
12.08.2016 00:42 10,1 C 87 % 1023,1 hPa 0,0 l/m 6,8 km/h (2 Bft) S-SW 209 0 min 0,000 mm 0,0 UV-I 0 W/m 8,0 C 9,8 C 9,7 km/h (2 Bft) 100,00 %
12.08.2016 00:44 10,1 C 87 % 1023,0 hPa 0,0 l/m 6,9 km/h (2 Bft) S 169 0 min 0,000 mm 0,0 UV-I 0 W/m 8,0 C 9,7 C 9,7 km/h (2 Bft) 100,00 %
12.08.2016 00:46 10,1 C 88 % 1023,0 hPa 0,0 l/m 8,2 km/h (2 Bft) S-SW 196 0 min 0,000 mm 0,0 UV-I 0 W/m 8,2 C 8,8 C 12,9 km/h (3 Bft) 100,00 %
12.08.2016 00:48 10,1 C 88 % 1023,0 hPa 0,0 l/m 7,8 km/h (2 Bft) S 175 0 min 0,000 mm 0,0 UV-I 0 W/m 8,2 C 9,1 C 11,3 km/h (2 Bft) 100,00 %
12.08.2016 00:50 10,1 C 88 % 1023,0 hPa 0,0 l/m 7,7 km/h (2 Bft) S 189 0 min 0,000 mm 0,0 UV-I 0 W/m 8,2 C 9,2 C 12,9 km/h (3 Bft) 93,62 %
12.08.2016 00:52 10,0 C 88 % 1023,0 hPa 0,0 l/m 7,1 km/h (2 Bft) S-SW 195 0 min 0,000 mm 0,0 UV-I 0 W/m 8,1 C 9,5 C 14,5 km/h (3 Bft) 97,87 %
12.08.2016 00:54 10,0 C 88 % 1023,0 hPa 0,0 l/m 7,2 km/h (2 Bft) S 184 0 min 0,000 mm 0,0 UV-I 0 W/m 8,1 C 9,4 C 9,7 km/h (2 Bft) 98,00 %
12.08.2016 00:56 10,0 C 88 % 1023,0 hPa 0,0 l/m 7,4 km/h (2 Bft) S-SW 207 0 min 0,000 mm 0,0 UV-I 0 W/m 8,1 C 9,3 C 11,3 km/h (2 Bft) 97,87 %
12.08.2016 00:58 10,0 C 88 % 1022,9 hPa 0,0 l/m 8,0 km/h (2 Bft) S 171 0 min 0,000 mm 0,0 UV-I 0 W/m 8,1 C 8,9 C 12,9 km/h (3 Bft) 97,87 %
12.08.2016 01:00 9,9 C 88 % 1022,9 hPa 0,0 l/m 8,4 km/h (2 Bft) S 186 0 min 0,000 mm 0,0 UV-I 0 W/m 8,0 C 8,5 C 11,3 km/h (2 Bft) 95,12 %
12.08.2016 01:02 9,9 C 88 % 1022,9 hPa 0,0 l/m 7,5 km/h (2 Bft) S 182 0 min 0,000 mm 0,0 UV-I 0 W/m 8,0 C 9,1 C 11,3 km/h (2 Bft) 95,74 %
12.08.2016 01:04 9,9 C 88 % 1022,9 hPa 0,0 l/m 7,4 km/h (2 Bft) S 184 0 min 0,000 mm 0,0 UV-I 0 W/m 8,0 C 9,2 C 14,5 km/h (3 Bft) 95,74 %
12.08.2016 01:06 10,0 C 88 % 1023,0 hPa 0,0 l/m 7,2 km/h (2 Bft) S 184 0 min 0,000 mm 0,0 UV-I 0 W/m 8,1 C 9,4 C 11,3 km/h (2 Bft) 95,74 %
12.08.2016 01:08 9,9 C 88 % 1023,0 hPa 0,0 l/m 6,7 km/h (2 Bft) S 186 0 min 0,000 mm 0,0 UV-I 0 W/m 8,0 C 9,7 C 9,7 km/h (2 Bft) 95,74 %
12.08.2016 01:10 9,9 C 88 % 1023,0 hPa 0,0 l/m 6,4 km/h (2 Bft) S-SW 196 0 min 0,000 mm 0,0 UV-I 0 W/m 8,0 C 9,9 C 9,7 km/h (2 Bft) 96,00 %
12.08.2016 01:12 9,9 C 88 % 1022,9 hPa 0,0 l/m 5,8 km/h (2 Bft) S-SO 168 0 min 0,000 mm 0,0 UV-I 0 W/m 8,0 C 9,9 C 9,7 km/h (2 Bft) 97,87 %
12.08.2016 01:14 9,9 C 88 % 1023,0 hPa 0,0 l/m 5,4 km/h (1 Bft) S 175 0 min 0,000 mm 0,0 UV-I 0 W/m 8,0 C 9,9 C 9,7 km/h (2 Bft) 97,87 %
12.08.2016 01:16 9,9 C 88 % 1023,0 hPa 0,0 l/m 5,5 km/h (1 Bft) S-SW 197 0 min 0,000 mm 0,0 UV-I 0 W/m 8,0 C 9,9 C 8,0 km/h (2 Bft) 95,74 %
12.08.2016 01:18 9,8 C 88 % 1022,9 hPa 0,0 l/m 6,1 km/h (2 Bft) S 188 0 min 0,000 mm 0,0 UV-I 0 W/m 7,9 C 9,8 C 9,7 km/h (2 Bft) 95,74 %
12.08.2016 01:20 9,8 C 89 % 1022,9 hPa 0,0 l/m 5,3 km/h (1 Bft) S 172 0 min 0,000 mm 0,0 UV-I 0 W/m 8,1 C 9,8 C 8,0 km/h (2 Bft) 95,74 %
12.08.2016 01:22 9,8 C 89 % 1022,9 hPa 0,0 l/m 6,0 km/h (2 Bft) S-SW 192 0 min 0,000 mm 0,0 UV-I 0 W/m 8,1 C 9,8 C 9,7 km/h (2 Bft) 97,22 %
12.08.2016 01:24 9,8 C 89 % 1022,9 hPa 0,0 l/m 6,3 km/h (2 Bft) S 180 0 min 0,000 mm 0,0 UV-I 0 W/m 8,1 C 9,8 C 9,7 km/h (2 Bft) 98,00 %
12.08.2016 01:26 9,7 C 89 % 1022,9 hPa 0,0 l/m 6,0 km/h (2 Bft) S-SW 205 0 min 0,000 mm 0,0 UV-I 0 W/m 8,0 C 9,7 C 9,7 km/h (2 Bft) 97,87 %
12.08.2016 01:28 9,8 C 89 % 1023,0 hPa 0,0 l/m 5,4 km/h (1 Bft) S-SW 194 0 min 0,000 mm 0,0 UV-I 0 W/m 8,1 C 9,8 C 8,0 km/h (2 Bft) 100,00 %
12.08.2016 01:30 9,8 C 89 % 1022,9 hPa 0,0 l/m 4,9 km/h (1 Bft) S 174 0 min 0,000 mm 0,0 UV-I 0 W/m 8,1 C 9,8 C 8,0 km/h (2 Bft) 100,00 %
12.08.2016 01:32 9,8 C 89 % 1022,9 hPa 0,0 l/m 4,7 km/h (1 Bft) S 188 0 min 0,000 mm 0,0 UV-I 0 W/m 8,1 C 9,8 C 6,4 km/h (2 Bft) 97,87 %
12.08.2016 01:34 9,7 C 89 % 1022,9 hPa 0,0 l/m 5,6 km/h (1 Bft) S-SW 199 0 min 0,000 mm 0,0 UV-I 0 W/m 8,0 C 9,7 C 8,0 km/h (2 Bft) 97,87 %
12.08.2016 01:36 9,7 C 89 % 1022,9 hPa 0,0 l/m 5,2 km/h (1 Bft) S 188 0 min 0,000 mm 0,0 UV-I 0 W/m 8,0 C 9,7 C 8,0 km/h (2 Bft) 100,00 %
12.08.2016 01:38 9,7 C 89 % 1022,9 hPa 0,0 l/m 4,7 km/h (1 Bft) S 188 0 min 0,000 mm 0,0 UV-I 0 W/m 8,0 C 9,7 C 8,0 km/h (2 Bft) 100,00 %
12.08.2016 01:40 9,7 C 89 % 1022,9 hPa 0,0 l/m 5,3 km/h (1 Bft) S-SO 164 0 min 0,000 mm 0,0 UV-I 0 W/m 8,0 C 9,7 C 8,0 km/h (2 Bft) 100,00 %
12.08.2016 01:42 9,6 C 89 % 1022,9 hPa 0,0 l/m 4,2 km/h (1 Bft) S 190 0 min 0,000 mm 0,0 UV-I 0 W/m 7,9 C 9,6 C 6,4 km/h (2 Bft) 100,00 %
12.08.2016 01:44 9,6 C 89 % 1022,8 hPa 0,0 l/m 4,9 km/h (1 Bft) S 183 0 min 0,000 mm 0,0 UV-I 0 W/m 7,9 C 9,6 C 9,7 km/h (2 Bft) 100,00 %
12.08.2016 01:46 9,6 C 89 % 1022,8 hPa 0,0 l/m 5,5 km/h (1 Bft) S-SW 201 0 min 0,000 mm 0,0 UV-I 0 W/m 7,9 C 9,6 C 8,0 km/h (2 Bft) 100,00 %
12.08.2016 01:48 9,6 C 89 % 1022,8 hPa 0,0 l/m 7,1 km/h (2 Bft) S-SW 200 0 min 0,000 mm 0,0 UV-I 0 W/m 7,9 C 9,1 C 9,7 km/h (2 Bft) 100,00 %
12.08.2016 01:50 9,6 C 89 % 1022,7 hPa 0,0 l/m 6,0 km/h (2 Bft) S 180 0 min 0,000 mm 0,0 UV-I 0 W/m 7,9 C 9,6 C 11,3 km/h (2 Bft) 100,00 %
12.08.2016 01:52 9,7 C 89 % 1022,7 hPa 0,0 l/m 6,2 km/h (2 Bft) S-SW 198 0 min 0,000 mm 0,0 UV-I 0 W/m 8,0 C 9,7 C 9,7 km/h (2 Bft) 100,00 %
12.08.2016 01:54 9,7 C 89 % 1022,7 hPa 0,0 l/m 6,7 km/h (2 Bft) S-SW 206 0 min 0,000 mm 0,0 UV-I 0 W/m 8,0 C 9,5 C 11,3 km/h (2 Bft) 100,00 %
12.08.2016 01:56 9,7 C 89 % 1022,7 hPa 0,0 l/m 4,4 km/h (1 Bft) S-SW 192 0 min 0,000 mm 0,0 UV-I 0 W/m 8,0 C 9,7 C 8,0 km/h (2 Bft) 100,00 %
12.08.2016 01:58 9,7 C 89 % 1022,7 hPa 0,0 l/m 3,7 km/h (1 Bft) SW 215 0 min 0,000 mm 0,0 UV-I 0 W/m 8,0 C 9,7 C 8,0 km/h (2 Bft) 100,00 %
12.08.2016 02:00 9,7 C 89 % 1022,7 hPa 0,0 l/m 4,1 km/h (1 Bft) S 191 0 min 0,000 mm 0,0 UV-I 0 W/m 8,0 C 9,7 C 6,4 km/h (2 Bft) 100,00 %
12.08.2016 02:02 9,7 C 89 % 1022,7 hPa 0,0 l/m 5,1 km/h (1 Bft) S-SW 205 0 min 0,000 mm 0,0 UV-I 0 W/m 8,0 C 9,7 C 8,0 km/h (2 Bft) 100,00 %
12.08.2016 02:04 9,7 C 89 % 1022,7 hPa 0,0 l/m 1,5 km/h (1 Bft) S-SW 205 0 min 0,000 mm 0,0 UV-I 0 W/m 8,0 C 9,7 C 3,2 km/h (1 Bft) 97,87 %
12.08.2016 02:06 9,7 C 89 % 1022,7 hPa 0,0 l/m 4,0 km/h (1 Bft) S-SW 213 0 min 0,000 mm 0,0 UV-I 0 W/m 8,0 C 9,7 C 6,4 km/h (2 Bft) 100,00 %
12.08.2016 02:08 9,7 C 89 % 1022,7 hPa 0,0 l/m 2,5 km/h (1 Bft) SW 217 0 min 0,000 mm 0,0 UV-I 0 W/m 8,0 C 9,7 C 6,4 km/h (2 Bft) 97,87 %
12.08.2016 02:10 9,7 C 89 % 1022,8 hPa 0,0 l/m 2,8 km/h (1 Bft) SW 217 0 min 0,000 mm 0,0 UV-I 0 W/m 8,0 C 9,7 C 4,8 km/h (1 Bft) 100,00 %
12.08.2016 02:12 9,7 C 89 % 1022,7 hPa 0,0 l/m 2,2 km/h (1 Bft) SW 227 0 min 0,000 mm 0,0 UV-I 0 W/m 8,0 C 9,7 C 4,8 km/h (1 Bft) 100,00 %
12.08.2016 02:14 9,7 C 89 % 1022,7 hPa 0,0 l/m 4,0 km/h (1 Bft) S 169 0 min 0,000 mm 0,0 UV-I 0 W/m 8,0 C 9,7 C 6,4 km/h (2 Bft) 97,87 %
12.08.2016 02:16 9,7 C 89 % 1022,7 hPa 0,0 l/m 2,7 km/h (1 Bft) S 171 0 min 0,000 mm 0,0 UV-I 0 W/m 8,0 C 9,7 C 6,4 km/h (2 Bft) 100,00 %
12.08.2016 02:18 9,7 C 89 % 1022,7 hPa 0,0 l/m 2,5 km/h (1 Bft) S 174 0 min 0,000 mm 0,0 UV-I 0 W/m 8,0 C 9,7 C 6,4 km/h (2 Bft) 97,87 %
12.08.2016 02:20 9,7 C 89 % 1022,7 hPa 0,0 l/m 2,6 km/h (1 Bft) S-SW 202 0 min 0,000 mm 0,0 UV-I 0 W/m 8,0 C 9,7 C 6,4 km/h (2 Bft) 100,00 %
12.08.2016 02:22 9,7 C 89 % 1022,7 hPa 0,0 l/m 2,2 km/h (1 Bft) S-SW 202 0 min 0,000 mm 0,0 UV-I 0 W/m 8,0 C 9,7 C 3,2 km/h (1 Bft) 97,87 %
12.08.2016 02:24 9,7 C 89 % 1022,6 hPa 0,0 l/m 2,1 km/h (1 Bft) S-SW 200 0 min 0,000 mm 0,0 UV-I 0 W/m 8,0 C 9,7 C 4,8 km/h (1 Bft) 100,00 %
12.08.2016 02:26 9,7 C 90 % 1022,6 hPa 0,0 l/m 3,2 km/h (1 Bft) S 173 0 min 0,000 mm 0,0 UV-I 0 W/m 8,1 C 9,7 C 4,8 km/h (1 Bft) 100,00 %
12.08.2016 02:28 9,7 C 90 % 1022,6 hPa 0,0 l/m 1,6 km/h (1 Bft) S 171 0 min 0,000 mm 0,0 UV-I 0 W/m 8,1 C 9,7 C 3,2 km/h (1 Bft) 97,87 %
12.08.2016 02:30 9,7 C 90 % 1022,6 hPa 0,0 l/m 3,2 km/h (1 Bft) S 175 0 min 0,000 mm 0,0 UV-I 0 W/m 8,1 C 9,7 C 6,4 km/h (2 Bft) 100,00 %
12.08.2016 02:32 9,7 C 90 % 1022,6 hPa 0,0 l/m 1,9 km/h (1 Bft) S 175 0 min 0,000 mm 0,0 UV-I 0 W/m 8,1 C 9,7 C 3,2 km/h (1 Bft) 100,00 %
12.08.2016 02:34 9,7 C 90 % 1022,7 hPa 0,0 l/m 1,2 km/h (1 Bft) S 175 0 min 0,000 mm 0,0 UV-I 0 W/m 8,1 C 9,7 C 3,2 km/h (1 Bft) 95,74 %
12.08.2016 02:36 9,7 C 90 % 1022,7 hPa 0,0 l/m 0,8 km/h (0 Bft) S 175 0 min 0,000 mm 0,0 UV-I 0 W/m 8,1 C 9,7 C 1,6 km/h (1 Bft) 100,00 %
12.08.2016 02:38 9,7 C 90 % 1022,7 hPa 0,0 l/m 0,1 km/h (0 Bft) S 175 0 min 0,000 mm 0,0 UV-I 0 W/m 8,1 C 9,7 C 1,6 km/h (1 Bft) 100,00 %
12.08.2016 02:40 9,7 C 90 % 1022,7 hPa 0,0 l/m 1,4 km/h (1 Bft) S 175 0 min 0,000 mm 0,0 UV-I 0 W/m 8,1 C 9,7 C 3,2 km/h (1 Bft) 100,00 %
12.08.2016 02:42 9,7 C 90 % 1022,7 hPa 0,0 l/m 2,3 km/h (1 Bft) S 175 0 min 0,000 mm 0,0 UV-I 0 W/m 8,1 C 9,7 C 3,2 km/h (1 Bft) 96,00 %
12.08.2016 02:44 9,6 C 90 % 1022,7 hPa 0,0 l/m 2,2 km/h (1 Bft) S 175 0 min 0,000 mm 0,0 UV-I 0 W/m 8,0 C 9,6 C 3,2 km/h (1 Bft) 95,74 %
12.08.2016 02:46 9,6 C 90 % 1022,7 hPa 0,0 l/m 0,5 km/h (0 Bft) S 175 0 min 0,000 mm 0,0 UV-I 0 W/m 8,0 C 9,6 C 3,2 km/h (1 Bft) 100,00 %
12.08.2016 02:48 9,5 C 90 % 1022,7 hPa 0,0 l/m 1,7 km/h (1 Bft) S 175 0 min 0,000 mm 0,0 UV-I 0 W/m 7,9 C 9,5 C 3,2 km/h (1 Bft) 100,00 %
12.08.2016 02:50 9,4 C 90 % 1022,7 hPa 0,0 l/m 1,6 km/h (1 Bft) S 175 0 min 0,000 mm 0,0 UV-I 0 W/m 7,8 C 9,4 C 3,2 km/h (1 Bft) 97,87 %
12.08.2016 02:52 9,5 C 90 % 1022,7 hPa 0,0 l/m 1,2 km/h (1 Bft) S 175 0 min 0,000 mm 0,0 UV-I 0 W/m 7,9 C 9,5 C 1,6 km/h (1 Bft) 95,74 %
12.08.2016 02:54 9,5 C 90 % 1022,7 hPa 0,0 l/m 1,2 km/h (1 Bft) S 175 0 min 0,000 mm 0,0 UV-I 0 W/m 7,9 C 9,5 C 1,6 km/h (1 Bft) 97,87 %
12.08.2016 02:56 9,5 C 90 % 1022,8 hPa 0,0 l/m 1,4 km/h (1 Bft) S 175 0 min 0,000 mm 0,0 UV-I 0 W/m 7,9 C 9,5 C 1,6 km/h (1 Bft) 98,00 %
12.08.2016 02:58 9,4 C 91 % 1022,8 hPa 0,0 l/m 1,5 km/h (1 Bft) S 175 0 min 0,000 mm 0,0 UV-I 0 W/m 8,0 C 9,4 C 1,6 km/h (1 Bft) 97,87 %
12.08.2016 03:00 9,3 C 91 % 1022,8 hPa 0,0 l/m 1,6 km/h (1 Bft) S 175 0 min 0,000 mm 0,0 UV-I 0 W/m 7,9 C 9,3 C 3,2 km/h (1 Bft) 95,74 %
12.08.2016 03:02 9,3 C 91 % 1022,8 hPa 0,0 l/m 1,5 km/h (1 Bft) S 175 0 min 0,000 mm 0,0 UV-I 0 W/m 7,9 C 9,3 C 3,2 km/h (1 Bft) 97,87 %
12.08.2016 03:04 9,3 C 91 % 1022,8 hPa 0,0 l/m 2,4 km/h (1 Bft) S 175 0 min 0,000 mm 0,0 UV-I 0 W/m 7,9 C 9,3 C 3,2 km/h (1 Bft) 95,74 %
12.08.2016 03:06 9,2 C 92 % 1022,8 hPa 0,0 l/m 2,8 km/h (1 Bft) S 175 0 min 0,000 mm 0,0 UV-I 0 W/m 8,0 C 9,2 C 3,2 km/h (1 Bft) 97,22 %
12.08.2016 03:08 9,2 C 92 % 1022,8 hPa 0,0 l/m 2,8 km/h (1 Bft) S 175 0 min 0,000 mm 0,0 UV-I 0 W/m 8,0 C 9,2 C 3,2 km/h (1 Bft) 98,00 %
12.08.2016 03:10 9,1 C 92 % 1022,8 hPa 0,0 l/m 3,1 km/h (1 Bft) S 175 0 min 0,000 mm 0,0 UV-I 0 W/m 7,9 C 9,1 C 3,2 km/h (1 Bft) 95,74 %
12.08.2016 03:12 9,1 C 92 % 1022,8 hPa 0,0 l/m 3,0 km/h (1 Bft) S 175 0 min 0,000 mm 0,0 UV-I 0 W/m 7,9 C 9,1 C 3,2 km/h (1 Bft) 97,87 %
12.08.2016 03:14 9,1 C 92 % 1022,9 hPa 0,0 l/m 2,1 km/h (1 Bft) S 175 0 min 0,000 mm 0,0 UV-I 0 W/m 7,9 C 9,1 C 3,2 km/h (1 Bft) 97,87 %
12.08.2016 03:16 9,1 C 92 % 1022,8 hPa 0,0 l/m 0,2 km/h (0 Bft) S 175 0 min 0,000 mm 0,0 UV-I 0 W/m 7,9 C 9,1 C 1,6 km/h (1 Bft) 97,87 %
12.08.2016 03:18 9,2 C 92 % 1022,9 hPa 0,0 l/m 0,0 km/h (0 Bft) S 175 0 min 0,000 mm 0,0 UV-I 0 W/m 8,0 C 9,2 C 1,6 km/h (1 Bft) 97,87 %
12.08.2016 03:20 9,2 C 92 % 1022,9 hPa 0,0 l/m 0,8 km/h (0 Bft) S 175 0 min 0,000 mm 0,0 UV-I 0 W/m 8,0 C 9,2 C 3,2 km/h (1 Bft) 95,83 %
12.08.2016 03:22 9,3 C 93 % 1022,9 hPa 0,0 l/m 0,3 km/h (0 Bft) S 175 0 min 0,000 mm 0,0 UV-I 0 W/m 8,2 C 9,3 C 1,6 km/h (1 Bft) 97,96 %
12.08.2016 03:24 9,3 C 92 % 1022,9 hPa 0,0 l/m 0,5 km/h (0 Bft) S 175 0 min 0,000 mm 0,0 UV-I 0 W/m 8,1 C 9,3 C 1,6 km/h (1 Bft) 100,00 %
12.08.2016 03:26 9,3 C 92 % 1022,9 hPa 0,0 l/m 2,4 km/h (1 Bft) S 175 0 min 0,000 mm 0,0 UV-I 0 W/m 8,1 C 9,3 C 3,2 km/h (1 Bft) 100,00 %
12.08.2016 03:28 9,3 C 92 % 1022,9 hPa 0,0 l/m 3,0 km/h (1 Bft) S 175 0 min 0,000 mm 0,0 UV-I 0 W/m 8,1 C 9,3 C 3,2 km/h (1 Bft) 97,87 %
12.08.2016 03:30 9,4 C 93 % 1022,9 hPa 0,0 l/m 2,0 km/h (1 Bft) S 175 0 min 0,000 mm 0,0 UV-I 0 W/m 8,3 C 9,4 C 3,2 km/h (1 Bft) 97,87 %
12.08.2016 03:32 9,4 C 93 % 1022,9 hPa 0,0 l/m 2,0 km/h (1 Bft) S 175 0 min 0,000 mm 0,0 UV-I 0 W/m 8,3 C 9,4 C 3,2 km/h (1 Bft) 97,87 %
12.08.2016 03:34 9,4 C 93 % 1022,9 hPa 0,0 l/m 2,5 km/h (1 Bft) S 175 0 min 0,000 mm 0,0 UV-I 0 W/m 8,3 C 9,4 C 3,2 km/h (1 Bft) 100,00 %
12.08.2016 03:36 9,3 C 93 % 1022,9 hPa 0,0 l/m 2,0 km/h (1 Bft) S 175 0 min 0,000 mm 0,0 UV-I 0 W/m 8,2 C 9,3 C 3,2 km/h (1 Bft) 100,00 %
12.08.2016 03:38 9,3 C 92 % 1022,9 hPa 0,0 l/m 2,8 km/h (1 Bft) S 175 0 min 0,000 mm 0,0 UV-I 0 W/m 8,1 C 9,3 C 3,2 km/h (1 Bft) 97,87 %
12.08.2016 03:40 9,3 C 92 % 1022,8 hPa 0,0 l/m 3,0 km/h (1 Bft) S 171 0 min 0,000 mm 0,0 UV-I 0 W/m 8,1 C 9,3 C 4,8 km/h (1 Bft) 95,74 %
12.08.2016 03:42 9,3 C 92 % 1022,9 hPa 0,0 l/m 3,0 km/h (1 Bft) S 171 0 min 0,000 mm 0,0 UV-I 0 W/m 8,1 C 9,3 C 6,4 km/h (2 Bft) 100,00 %
12.08.2016 03:44 9,4 C 93 % 1022,9 hPa 0,0 l/m 0,8 km/h (0 Bft) S 171 0 min 0,000 mm 0,0 UV-I 0 W/m 8,3 C 9,4 C 3,2 km/h (1 Bft) 97,87 %
12.08.2016 03:46 9,4 C 92 % 1022,9 hPa 0,0 l/m 0,6 km/h (0 Bft) S 171 0 min 0,000 mm 0,0 UV-I 0 W/m 8,2 C 9,4 C 1,6 km/h (1 Bft) 95,74 %
12.08.2016 03:48 9,4 C 92 % 1022,9 hPa 0,0 l/m 0,3 km/h (0 Bft) S 171 0 min 0,000 mm 0,0 UV-I 0 W/m 8,2 C 9,4 C 1,6 km/h (1 Bft) 100,00 %
12.08.2016 03:50 9,4 C 92 % 1022,9 hPa 0,0 l/m 0,0 km/h (0 Bft) S 171 0 min 0,000 mm 0,0 UV-I 0 W/m 8,2 C 9,4 C 0,0 km/h (0 Bft) 100,00 %
12.08.2016 03:52 9,4 C 92 % 1022,9 hPa 0,0 l/m 0,2 km/h (0 Bft) S 171 0 min 0,000 mm 0,0 UV-I 0 W/m 8,2 C 9,4 C 1,6 km/h (1 Bft) 98,00 %
12.08.2016 03:54 9,5 C 92 % 1022,9 hPa 0,0 l/m 1,1 km/h (1 Bft) S 171 0 min 0,000 mm 0,0 UV-I 0 W/m 8,3 C 9,5 C 3,2 km/h (1 Bft) 100,00 %
12.08.2016 03:56 9,5 C 92 % 1022,9 hPa 0,0 l/m 2,4 km/h (1 Bft) S 171 0 min 0,000 mm 0,0 UV-I 0 W/m 8,3 C 9,5 C 3,2 km/h (1 Bft) 100,00 %
12.08.2016 03:58 9,5 C 92 % 1022,9 hPa 0,0 l/m 3,7 km/h (1 Bft) S-SO 164 0 min 0,000 mm 0,0 UV-I 0 W/m 8,3 C 9,5 C 6,4 km/h (2 Bft) 100,00 %
12.08.2016 04:00 9,4 C 92 % 1022,9 hPa 0,0 l/m 1,4 km/h (1 Bft) S-SO 164 0 min 0,000 mm 0,0 UV-I 0 W/m 8,2 C 9,4 C 3,2 km/h (1 Bft) 100,00 %
12.08.2016 04:02 9,4 C 92 % 1022,9 hPa 0,0 l/m 3,1 km/h (1 Bft) S-SO 163 0 min 0,000 mm 0,0 UV-I 0 W/m 8,2 C 9,4 C 3,2 km/h (1 Bft) 100,00 %
12.08.2016 04:04 9,4 C 92 % 1022,9 hPa 0,0 l/m 1,1 km/h (1 Bft) S-SO 163 0 min 0,000 mm 0,0 UV-I 0 W/m 8,2 C 9,4 C 3,2 km/h (1 Bft) 97,87 %
12.08.2016 04:06 9,4 C 92 % 1022,8 hPa 0,0 l/m 1,6 km/h (1 Bft) S-SO 163 0 min 0,000 mm 0,0 UV-I 0 W/m 8,2 C 9,4 C 3,2 km/h (1 Bft) 100,00 %
12.08.2016 04:08 9,4 C 92 % 1022,8 hPa 0,0 l/m 0,4 km/h (0 Bft) S-SO 163 0 min 0,000 mm 0,0 UV-I 0 W/m 8,2 C 9,4 C 1,6 km/h (1 Bft) 100,00 %
12.08.2016 04:10 9,3 C 92 % 1022,8 hPa 0,0 l/m 0,5 km/h (0 Bft) S-SO 163 0 min 0,000 mm 0,0 UV-I 0 W/m 8,1 C 9,3 C 1,6 km/h (1 Bft) 100,00 %
12.08.2016 04:12 9,3 C 92 % 1022,9 hPa 0,0 l/m 0,7 km/h (0 Bft) S-SO 163 0 min 0,000 mm 0,0 UV-I 0 W/m 8,1 C 9,3 C 1,6 km/h (1 Bft) 100,00 %
12.08.2016 04:14 9,4 C 92 % 1022,8 hPa 0,0 l/m 1,8 km/h (1 Bft) S-SO 154 0 min 0,000 mm 0,0 UV-I 0 W/m 8,2 C 9,4 C 6,4 km/h (2 Bft) 100,00 %
12.08.2016 04:16 9,4 C 92 % 1022,8 hPa 0,0 l/m 1,7 km/h (1 Bft) S-SO 154 0 min 0,000 mm 0,0 UV-I 0 W/m 8,2 C 9,4 C 3,2 km/h (1 Bft) 97,87 %
12.08.2016 04:18 9,4 C 92 % 1022,8 hPa 0,0 l/m 1,5 km/h (1 Bft) S-SO 154 0 min 0,000 mm 0,0 UV-I 0 W/m 8,2 C 9,4 C 3,2 km/h (1 Bft) 100,00 %
12.08.2016 04:20 9,4 C 92 % 1022,8 hPa 0,0 l/m 1,5 km/h (1 Bft) S-SO 160 0 min 0,000 mm 0,0 UV-I 0 W/m 8,2 C 9,4 C 3,2 km/h (1 Bft) 100,00 %
12.08.2016 04:22 9,5 C 92 % 1022,8 hPa 0,0 l/m 0,8 km/h (0 Bft) S-SO 160 0 min 0,000 mm 0,0 UV-I 0 W/m 8,3 C 9,5 C 1,6 km/h (1 Bft) 100,00 %
12.08.2016 04:24 9,5 C 92 % 1022,8 hPa 0,0 l/m 0,7 km/h (0 Bft) S-SO 160 0 min 0,000 mm 0,0 UV-I 0 W/m 8,3 C 9,5 C 1,6 km/h (1 Bft) 95,12 %
12.08.2016 04:26 9,5 C 92 % 1022,8 hPa 0,0 l/m 0,7 km/h (0 Bft) S-SO 160 0 min 0,000 mm 0,0 UV-I 0 W/m 8,3 C 9,5 C 1,6 km/h (1 Bft) 100,00 %
12.08.2016 04:28 9,5 C 92 % 1022,8 hPa 0,0 l/m 0,8 km/h (0 Bft) S-SO 160 0 min 0,000 mm 0,0 UV-I 0 W/m 8,3 C 9,5 C 1,6 km/h (1 Bft) 100,00 %
12.08.2016 04:30 9,6 C 91 % 1022,8 hPa 0,0 l/m 0,8 km/h (0 Bft) S-SO 160 0 min 0,000 mm 0,0 UV-I 0 W/m 8,2 C 9,6 C 3,2 km/h (1 Bft) 97,87 %
12.08.2016 04:32 9,6 C 91 % 1022,8 hPa 0,0 l/m 0,3 km/h (0 Bft) S-SO 160 0 min 0,000 mm 0,0 UV-I 0 W/m 8,2 C 9,6 C 1,6 km/h (1 Bft) 100,00 %
12.08.2016 04:34 9,6 C 91 % 1022,9 hPa 0,0 l/m 1,2 km/h (1 Bft) S-SO 160 0 min 0,000 mm 0,0 UV-I 0 W/m 8,2 C 9,6 C 3,2 km/h (1 Bft) 100,00 %
12.08.2016 04:36 9,7 C 91 % 1022,8 hPa 0,0 l/m 0,6 km/h (0 Bft) S-SO 160 0 min 0,000 mm 0,0 UV-I 0 W/m 8,3 C 9,7 C 1,6 km/h (1 Bft) 97,87 %
12.08.2016 04:38 9,7 C 91 % 1022,9 hPa 0,0 l/m 0,2 km/h (0 Bft) S-SO 161 0 min 0,000 mm 0,0 UV-I 0 W/m 8,3 C 9,7 C 1,6 km/h (1 Bft) 97,87 %
12.08.2016 04:40 9,7 C 91 % 1022,8 hPa 0,0 l/m 1,4 km/h (1 Bft) S-SO 160 0 min 0,000 mm 0,0 UV-I 0 W/m 8,3 C 9,7 C 6,4 km/h (2 Bft) 97,92 %
12.08.2016 04:42 9,8 C 91 % 1022,8 hPa 0,0 l/m 0,2 km/h (0 Bft) S-SO 160 0 min 0,000 mm 0,0 UV-I 0 W/m 8,4 C 9,8 C 1,6 km/h (1 Bft) 100,00 %
12.08.2016 04:44 9,8 C 91 % 1022,8 hPa 0,0 l/m 0,5 km/h (0 Bft) S-SO 160 0 min 0,000 mm 0,0 UV-I 0 W/m 8,4 C 9,8 C 1,6 km/h (1 Bft) 100,00 %
12.08.2016 04:46 9,8 C 91 % 1022,8 hPa 0,0 l/m 0,4 km/h (0 Bft) S-SO 160 0 min 0,000 mm 0,0 UV-I 0 W/m 8,4 C 9,8 C 1,6 km/h (1 Bft) 95,74 %
12.08.2016 04:48 9,8 C 91 % 1022,8 hPa 0,0 l/m 0,2 km/h (0 Bft) S-SO 160 0 min 0,000 mm 0,0 UV-I 0 W/m 8,4 C 9,8 C 1,6 km/h (1 Bft) 95,74 %
12.08.2016 04:50 9,8 C 91 % 1022,9 hPa 0,0 l/m 0,2 km/h (0 Bft) S-SO 160 0 min 0,000 mm 0,0 UV-I 0 W/m 8,4 C 9,8 C 1,6 km/h (1 Bft) 97,87 %
12.08.2016 04:52 9,8 C 91 % 1022,9 hPa 0,0 l/m 0,5 km/h (0 Bft) S-SO 160 0 min 0,000 mm 0,0 UV-I 0 W/m 8,4 C 9,8 C 1,6 km/h (1 Bft) 94,00 %
12.08.2016 04:54 9,8 C 91 % 1022,9 hPa 0,0 l/m 0,2 km/h (0 Bft) S-SO 160 0 min 0,000 mm 0,0 UV-I 0 W/m 8,4 C 9,8 C 1,6 km/h (1 Bft) 97,87 %
12.08.2016 04:56 9,9 C 91 % 1023,0 hPa 0,0 l/m 0,5 km/h (0 Bft) S-SO 161 0 min 0,000 mm 0,0 UV-I 0 W/m 8,5 C 9,9 C 1,6 km/h (1 Bft) 91,49 %
12.08.2016 04:58 9,9 C 91 % 1023,0 hPa 0,0 l/m 1,2 km/h (1 Bft) S-SO 160 0 min 0,000 mm 0,0 UV-I 0 W/m 8,5 C 9,9 C 3,2 km/h (1 Bft) 97,87 %
12.08.2016 05:00 9,9 C 91 % 1023,0 hPa 0,0 l/m 1,5 km/h (1 Bft) S-SO 161 0 min 0,000 mm 0,0 UV-I 0 W/m 8,5 C 9,9 C 3,2 km/h (1 Bft) 97,37 %
12.08.2016 05:02 9,9 C 91 % 1023,1 hPa 0,0 l/m 1,8 km/h (1 Bft) S-SO 161 0 min 0,000 mm 0,0 UV-I 0 W/m 8,5 C 9,9 C 6,4 km/h (2 Bft) 97,92 %
12.08.2016 05:04 9,9 C 91 % 1023,0 hPa 0,0 l/m 1,9 km/h (1 Bft) S-SO 158 0 min 0,000 mm 0,0 UV-I 0 W/m 8,5 C 9,9 C 6,4 km/h (2 Bft) 98,11 %
12.08.2016 05:06 10,0 C 91 % 1023,1 hPa 0,0 l/m 2,1 km/h (1 Bft) S-SO 159 0 min 0,000 mm 0,0 UV-I 0 W/m 8,6 C 10,0 C 3,2 km/h (1 Bft) 97,37 %
12.08.2016 05:08 10,1 C 91 % 1023,2 hPa 0,0 l/m 0,7 km/h (0 Bft) S-SO 159 0 min 0,000 mm 0,0 UV-I 0 W/m 8,7 C 10,1 C 1,6 km/h (1 Bft) 97,87 %
12.08.2016 05:10 10,1 C 91 % 1023,2 hPa 0,0 l/m 1,1 km/h (1 Bft) W-SW 238 0 min 0,000 mm 0,0 UV-I 0 W/m 8,7 C 10,1 C 4,8 km/h (1 Bft) 95,74 %
12.08.2016 05:12 10,2 C 91 % 1023,2 hPa 0,0 l/m 2,5 km/h (1 Bft) W 274 0 min 0,000 mm 0,0 UV-I 0 W/m 8,8 C 10,2 C 4,8 km/h (1 Bft) 97,87 %
12.08.2016 05:14 10,1 C 91 % 1023,3 hPa 0,0 l/m 0,9 km/h (0 Bft) W 274 0 min 0,000 mm 0,0 UV-I 0 W/m 8,7 C 10,1 C 1,6 km/h (1 Bft) 95,74 %
12.08.2016 05:16 10,0 C 92 % 1023,3 hPa 0,0 l/m 1,5 km/h (1 Bft) W 273 0 min 0,000 mm 0,0 UV-I 0 W/m 8,8 C 10,0 C 3,2 km/h (1 Bft) 97,92 %
12.08.2016 05:18 9,9 C 92 % 1023,3 hPa 0,0 l/m 1,9 km/h (1 Bft) W 273 0 min 0,000 mm 0,0 UV-I 0 W/m 8,7 C 9,9 C 3,2 km/h (1 Bft) 97,87 %
12.08.2016 05:20 9,9 C 92 % 1023,3 hPa 0,0 l/m 1,7 km/h (1 Bft) W 274 0 min 0,000 mm 0,0 UV-I 0 W/m 8,7 C 9,9 C 3,2 km/h (1 Bft) 97,87 %
12.08.2016 05:22 9,9 C 92 % 1023,3 hPa 0,0 l/m 1,5 km/h (1 Bft) W 273 0 min 0,000 mm 0,0 UV-I 0 W/m 8,7 C 9,9 C 3,2 km/h (1 Bft) 100,00 %
12.08.2016 05:24 9,9 C 93 % 1023,3 hPa 0,0 l/m 3,0 km/h (1 Bft) S 183 0 min 0,000 mm 0,0 UV-I 0 W/m 8,8 C 9,9 C 4,8 km/h (1 Bft) 100,00 %
12.08.2016 05:26 9,9 C 93 % 1023,3 hPa 0,0 l/m 4,0 km/h (1 Bft) S 183 0 min 0,000 mm 0,0 UV-I 0 W/m 8,8 C 9,9 C 4,8 km/h (1 Bft) 100,00 %
12.08.2016 05:28 9,9 C 93 % 1023,3 hPa 0,0 l/m 3,1 km/h (1 Bft) S 171 0 min 0,000 mm 0,0 UV-I 0 W/m 8,8 C 9,9 C 6,4 km/h (2 Bft) 97,87 %
12.08.2016 05:30 10,0 C 93 % 1023,4 hPa 0,0 l/m 2,5 km/h (1 Bft) S 171 0 min 0,000 mm 0,0 UV-I 0 W/m 8,9 C 10,0 C 6,4 km/h (2 Bft) 97,87 %
12.08.2016 05:32 10,1 C 93 % 1023,4 hPa 0,0 l/m 1,2 km/h (1 Bft) S 171 0 min 0,000 mm 0,0 UV-I 0 W/m 9,0 C 10,1 C 3,2 km/h (1 Bft) 100,00 %
12.08.2016 05:34 10,1 C 93 % 1023,4 hPa 0,0 l/m 1,6 km/h (1 Bft) S 171 0 min 0,000 mm 0,0 UV-I 0 W/m 9,0 C 10,1 C 3,2 km/h (1 Bft) 100,00 %
12.08.2016 05:36 10,1 C 92 % 1023,5 hPa 0,0 l/m 1,1 km/h (1 Bft) S 171 0 min 0,000 mm 0,0 UV-I 0 W/m 8,9 C 10,1 C 1,6 km/h (1 Bft) 100,00 %
12.08.2016 05:38 10,2 C 92 % 1023,5 hPa 0,0 l/m 0,5 km/h (0 Bft) S 171 0 min 0,000 mm 0,0 UV-I 0 W/m 9,0 C 10,2 C 1,6 km/h (1 Bft) 100,00 %
12.08.2016 05:40 10,2 C 92 % 1023,5 hPa 0,0 l/m 0,7 km/h (0 Bft) S 171 0 min 0,000 mm 0,0 UV-I 0 W/m 9,0 C 10,2 C 3,2 km/h (1 Bft) 100,00 %
12.08.2016 05:42 10,2 C 92 % 1023,5 hPa 0,0 l/m 0,1 km/h (0 Bft) S 171 0 min 0,000 mm 0,0 UV-I 0 W/m 9,0 C 10,2 C 1,6 km/h (1 Bft) 95,74 %
12.08.2016 05:44 10,2 C 92 % 1023,6 hPa 0,0 l/m 0,4 km/h (0 Bft) S 171 0 min 0,000 mm 0,0 UV-I 0 W/m 9,0 C 10,2 C 3,2 km/h (1 Bft) 100,00 %
12.08.2016 05:46 10,2 C 92 % 1023,6 hPa 0,0 l/m 2,0 km/h (1 Bft) S 171 0 min 0,000 mm 0,0 UV-I 0 W/m 9,0 C 10,2 C 6,4 km/h (2 Bft) 100,00 %
12.08.2016 05:48 10,2 C 92 % 1023,6 hPa 0,0 l/m 2,0 km/h (1 Bft) S 171 0 min 0,000 mm 0,0 UV-I 0 W/m 9,0 C 10,2 C 3,2 km/h (1 Bft) 100,00 %
12.08.2016 05:50 10,2 C 93 % 1023,6 hPa 0,0 l/m 1,8 km/h (1 Bft) S 171 0 min 0,000 mm 0,0 UV-I 0 W/m 9,1 C 10,2 C 3,2 km/h (1 Bft) 97,87 %
12.08.2016 05:52 10,2 C 93 % 1023,6 hPa 0,0 l/m 2,0 km/h (1 Bft) S 171 0 min 0,000 mm 0,0 UV-I 0 W/m 9,1 C 10,2 C 3,2 km/h (1 Bft) 100,00 %
12.08.2016 05:54 10,2 C 93 % 1023,7 hPa 0,0 l/m 2,3 km/h (1 Bft) S 171 0 min 0,000 mm 0,0 UV-I 0 W/m 9,1 C 10,2 C 6,4 km/h (2 Bft) 97,92 %
12.08.2016 05:56 10,2 C 93 % 1023,7 hPa 0,0 l/m 3,9 km/h (1 Bft) S 178 0 min 0,000 mm 0,0 UV-I 0 W/m 9,1 C 10,2 C 6,4 km/h (2 Bft) 100,00 %
12.08.2016 05:58 10,2 C 93 % 1023,7 hPa 0,0 l/m 3,8 km/h (1 Bft) S 179 0 min 0,000 mm 0,0 UV-I 0 W/m 9,1 C 10,2 C 4,8 km/h (1 Bft) 100,00 %
12.08.2016 06:00 10,2 C 93 % 1023,7 hPa 0,0 l/m 4,7 km/h (1 Bft) S-SW 195 0 min 0,000 mm 0,0 UV-I 0 W/m 9,1 C 10,2 C 6,4 km/h (2 Bft) 100,00 %
12.08.2016 06:02 10,3 C 93 % 1023,8 hPa 0,0 l/m 5,4 km/h (1 Bft) S-SW 194 0 min 0,000 mm 0,0 UV-I 0 W/m 9,2 C 10,3 C 6,4 km/h (2 Bft) 100,00 %
12.08.2016 06:04 10,3 C 93 % 1023,8 hPa 0,0 l/m 6,7 km/h (2 Bft) S-SW 206 0 min 0,000 mm 0,0 UV-I 0 W/m 9,2 C 10,1 C 9,7 km/h (2 Bft) 95,74 %
12.08.2016 06:06 10,3 C 93 % 1023,8 hPa 0,0 l/m 5,8 km/h (2 Bft) S-SW 195 0 min 0,000 mm 0,0 UV-I 0 W/m 9,2 C 10,3 C 9,7 km/h (2 Bft) 97,87 %
12.08.2016 06:08 10,4 C 93 % 1023,8 hPa 0,0 l/m 5,8 km/h (2 Bft) S-SW 205 0 min 0,000 mm 0,0 UV-I 3 W/m 9,3 C 10,4 C 8,0 km/h (2 Bft) 100,00 %
12.08.2016 06:10 10,4 C 93 % 1023,8 hPa 0,0 l/m 5,7 km/h (1 Bft) S-SW 203 0 min 0,000 mm 0,0 UV-I 6 W/m 9,3 C 10,4 C 8,0 km/h (2 Bft) 97,87 %
12.08.2016 06:12 10,4 C 93 % 1023,8 hPa 0,0 l/m 8,5 km/h (2 Bft) SW 227 0 min 0,000 mm 0,0 UV-I 9 W/m 9,3 C 8,9 C 12,9 km/h (3 Bft) 100,00 %
12.08.2016 06:14 10,5 C 92 % 1023,8 hPa 0,0 l/m 6,1 km/h (2 Bft) S-SW 205 0 min 0,000 mm 0,0 UV-I 12 W/m 9,3 C 10,5 C 8,0 km/h (2 Bft) 100,00 %
12.08.2016 06:16 10,5 C 92 % 1023,8 hPa 0,0 l/m 5,9 km/h (2 Bft) S 173 0 min 0,000 mm 0,0 UV-I 16 W/m 9,3 C 10,5 C 11,3 km/h (2 Bft) 100,00 %
12.08.2016 06:18 10,6 C 92 % 1023,8 hPa 0,0 l/m 5,9 km/h (2 Bft) S-SO 165 0 min 0,000 mm 0,0 UV-I 20 W/m 9,4 C 10,6 C 9,7 km/h (2 Bft) 98,00 %
12.08.2016 06:20 10,6 C 92 % 1023,8 hPa 0,0 l/m 7,5 km/h (2 Bft) S-SW 200 0 min 0,000 mm 0,0 UV-I 24 W/m 9,4 C 9,8 C 12,9 km/h (3 Bft) 100,00 %
12.08.2016 06:22 10,6 C 92 % 1023,8 hPa 0,0 l/m 5,2 km/h (1 Bft) W-SW 248 0 min 0,000 mm 0,0 UV-I 25 W/m 9,4 C 10,6 C 8,0 km/h (2 Bft) 97,37 %
12.08.2016 06:24 10,7 C 92 % 1023,8 hPa 0,0 l/m 5,5 km/h (1 Bft) S-SW 196 0 min 0,000 mm 0,0 UV-I 26 W/m 9,5 C 10,7 C 9,7 km/h (2 Bft) 100,00 %
12.08.2016 06:26 10,7 C 92 % 1023,8 hPa 0,0 l/m 6,1 km/h (2 Bft) SW 217 0 min 0,000 mm 0,0 UV-I 25 W/m 9,5 C 10,7 C 9,7 km/h (2 Bft) 100,00 %
12.08.2016 06:28 10,8 C 92 % 1023,8 hPa 0,0 l/m 5,3 km/h (1 Bft) SW 223 0 min 0,000 mm 0,0 UV-I 24 W/m 9,6 C 10,8 C 8,0 km/h (2 Bft) 100,00 %
12.08.2016 06:30 10,8 C 92 % 1023,8 hPa 0,0 l/m 6,0 km/h (2 Bft) S-SW 200 0 min 0,000 mm 0,0 UV-I 21 W/m 9,6 C 10,8 C 9,7 km/h (2 Bft) 100,00 %
12.08.2016 06:32 10,8 C 92 % 1023,9 hPa 0,0 l/m 4,6 km/h (1 Bft) SW 217 0 min 0,000 mm 0,0 UV-I 21 W/m 9,6 C 10,8 C 6,4 km/h (2 Bft) 97,87 %
12.08.2016 06:34 10,8 C 92 % 1023,9 hPa 0,0 l/m 5,2 km/h (1 Bft) S-SW 192 0 min 0,000 mm 0,0 UV-I 21 W/m 9,6 C 10,8 C 8,0 km/h (2 Bft) 100,00 %
12.08.2016 06:36 10,8 C 92 % 1023,9 hPa 0,0 l/m 5,1 km/h (1 Bft) S-SW 193 0 min 0,000 mm 0,0 UV-I 21 W/m 9,6 C 10,8 C 8,0 km/h (2 Bft) 96,00 %
12.08.2016 06:38 10,9 C 92 % 1023,9 hPa 0,0 l/m 4,5 km/h (1 Bft) SW 216 0 min 0,000 mm 0,0 UV-I 21 W/m 9,7 C 10,9 C 8,0 km/h (2 Bft) 100,00 %
12.08.2016 06:40 10,9 C 92 % 1023,9 hPa 0,0 l/m 4,3 km/h (1 Bft) S-SW 192 0 min 0,000 mm 0,0 UV-I 21 W/m 9,7 C 10,9 C 6,4 km/h (2 Bft) 97,87 %
12.08.2016 06:42 10,9 C 92 % 1023,9 hPa 0,0 l/m 5,0 km/h (1 Bft) S 183 0 min 0,000 mm 0,0 UV-I 21 W/m 9,7 C 10,9 C 8,0 km/h (2 Bft) 98,00 %
12.08.2016 06:44 10,9 C 92 % 1023,9 hPa 0,0 l/m 6,4 km/h (2 Bft) S 188 0 min 0,000 mm 0,0 UV-I 21 W/m 9,7 C 10,9 C 9,7 km/h (2 Bft) 95,74 %
12.08.2016 06:46 10,9 C 92 % 1023,9 hPa 0,0 l/m 6,0 km/h (2 Bft) SW 221 0 min 0,000 mm 0,0 UV-I 21 W/m 9,7 C 10,9 C 9,7 km/h (2 Bft) 97,87 %
12.08.2016 06:48 10,9 C 92 % 1023,9 hPa 0,0 l/m 7,4 km/h (2 Bft) S-SW 201 0 min 0,000 mm 0,0 UV-I 21 W/m 9,7 C 10,2 C 11,3 km/h (2 Bft) 97,87 %
12.08.2016 06:50 11,0 C 92 % 1023,9 hPa 0,0 l/m 6,6 km/h (2 Bft) S 187 0 min 0,000 mm 0,0 UV-I 21 W/m 9,8 C 10,9 C 12,9 km/h (3 Bft) 95,74 %
12.08.2016 06:52 11,0 C 92 % 1023,9 hPa 0,0 l/m 6,9 km/h (2 Bft) S-SW 211 0 min 0,000 mm 0,0 UV-I 21 W/m 9,8 C 10,7 C 12,9 km/h (3 Bft) 95,74 %
12.08.2016 06:54 11,0 C 92 % 1023,9 hPa 0,0 l/m 8,4 km/h (2 Bft) S-SW 201 0 min 0,000 mm 0,0 UV-I 23 W/m 9,8 C 9,6 C 14,5 km/h (3 Bft) 95,74 %
12.08.2016 06:56 11,1 C 91 % 1023,9 hPa 0,0 l/m 7,0 km/h (2 Bft) SW 217 0 min 0,000 mm 0,0 UV-I 24 W/m 9,7 C 10,7 C 11,3 km/h (2 Bft) 95,74 %
12.08.2016 06:58 11,1 C 91 % 1023,9 hPa 0,0 l/m 6,7 km/h (2 Bft) S 186 0 min 0,000 mm 0,0 UV-I 26 W/m 9,7 C 10,9 C 9,7 km/h (2 Bft) 97,87 %
12.08.2016 07:00 11,1 C 91 % 1023,9 hPa 0,0 l/m 8,6 km/h (2 Bft) S 172 0 min 0,025 mm 0,0 UV-I 28 W/m 9,7 C 9,6 C 14,5 km/h (3 Bft) 97,87 %
12.08.2016 07:02 11,2 C 91 % 1023,9 hPa 0,0 l/m 8,6 km/h (2 Bft) S-SW 201 0 min 0,000 mm 0,0 UV-I 30 W/m 9,8 C 9,7 C 11,3 km/h (2 Bft) 95,74 %
12.08.2016 07:04 11,2 C 92 % 1023,9 hPa 0,0 l/m 7,9 km/h (2 Bft) S 188 0 min 0,000 mm 0,0 UV-I 30 W/m 9,9 C 10,2 C 11,3 km/h (2 Bft) 94,74 %
12.08.2016 07:06 11,2 C 91 % 1023,9 hPa 0,0 l/m 7,7 km/h (2 Bft) SW 225 0 min 0,000 mm 0,0 UV-I 29 W/m 9,8 C 10,3 C 11,3 km/h (2 Bft) 93,62 %
12.08.2016 07:08 11,2 C 91 % 1023,9 hPa 0,0 l/m 7,9 km/h (2 Bft) S-SW 201 0 min 0,000 mm 0,0 UV-I 28 W/m 9,8 C 10,2 C 12,9 km/h (3 Bft) 93,62 %
12.08.2016 07:10 11,3 C 91 % 1023,9 hPa 0,0 l/m 6,6 km/h (2 Bft) S-SW 202 0 min 0,000 mm 0,0 UV-I 26 W/m 9,9 C 11,2 C 9,7 km/h (2 Bft) 95,74 %
12.08.2016 07:12 11,3 C 91 % 1023,9 hPa 0,0 l/m 9,5 km/h (2 Bft) S-SW 198 0 min 0,000 mm 0,0 UV-I 27 W/m 9,9 C 9,3 C 14,5 km/h (3 Bft) 96,00 %
12.08.2016 07:14 11,3 C 91 % 1023,9 hPa 0,0 l/m 7,0 km/h (2 Bft) S-SW 209 0 min 0,000 mm 0,0 UV-I 28 W/m 9,9 C 10,9 C 9,7 km/h (2 Bft) 91,49 %
12.08.2016 07:16 11,3 C 91 % 1023,9 hPa 0,0 l/m 6,0 km/h (2 Bft) W-SW 246 0 min 0,000 mm 0,0 UV-I 28 W/m 9,9 C 11,3 C 11,3 km/h (2 Bft) 97,87 %
12.08.2016 07:18 11,3 C 91 % 1023,9 hPa 0,0 l/m 8,9 km/h (2 Bft) W-SW 243 0 min 0,000 mm 0,0 UV-I 29 W/m 9,9 C 9,7 C 12,9 km/h (3 Bft) 98,00 %
12.08.2016 07:20 11,3 C 91 % 1023,9 hPa 0,0 l/m 7,5 km/h (2 Bft) S-SW 205 0 min 0,000 mm 0,0 UV-I 33 W/m 9,9 C 10,5 C 11,3 km/h (2 Bft) 97,92 %
12.08.2016 07:22 11,4 C 91 % 1023,9 hPa 0,0 l/m 8,4 km/h (2 Bft) W-SW 245 0 min 0,000 mm 0,0 UV-I 34 W/m 10,0 C 10,1 C 12,9 km/h (3 Bft) 100,00 %
12.08.2016 07:24 11,4 C 91 % 1024,0 hPa 0,0 l/m 6,6 km/h (2 Bft) S 183 0 min 0,000 mm 0,0 UV-I 36 W/m 10,0 C 11,3 C 11,3 km/h (2 Bft) 94,74 %
12.08.2016 07:26 11,4 C 90 % 1023,9 hPa 0,0 l/m 7,6 km/h (2 Bft) S-SW 198 0 min 0,000 mm 0,0 UV-I 39 W/m 9,8 C 10,6 C 11,3 km/h (2 Bft) 100,00 %
12.08.2016 07:28 11,5 C 90 % 1023,9 hPa 0,0 l/m 8,7 km/h (2 Bft) W-SW 241 0 min 0,000 mm 0,0 UV-I 41 W/m 9,9 C 10,0 C 14,5 km/h (3 Bft) 97,96 %
12.08.2016 07:30 11,6 C 90 % 1023,9 hPa 0,0 l/m 7,7 km/h (2 Bft) S-SW 200 0 min 0,000 mm 0,0 UV-I 45 W/m 10,0 C 10,7 C 12,9 km/h (3 Bft) 100,00 %
12.08.2016 07:32 11,6 C 90 % 1023,9 hPa 0,0 l/m 7,7 km/h (2 Bft) S-SW 205 0 min 0,000 mm 0,0 UV-I 47 W/m 10,0 C 10,7 C 14,5 km/h (3 Bft) 100,00 %
12.08.2016 07:34 11,7 C 89 % 1023,9 hPa 0,0 l/m 5,8 km/h (2 Bft) S-SW 205 0 min 0,000 mm 0,0 UV-I 49 W/m 9,9 C 11,7 C 9,7 km/h (2 Bft) 96,00 %
12.08.2016 07:36 11,7 C 89 % 1023,9 hPa 0,0 l/m 8,0 km/h (2 Bft) SW 236 0 min 0,000 mm 0,0 UV-I 49 W/m 9,9 C 10,6 C 9,7 km/h (2 Bft) 97,87 %
12.08.2016 07:38 11,7 C 89 % 1024,0 hPa 0,0 l/m 7,4 km/h (2 Bft) S-SW 209 0 min 0,000 mm 0,0 UV-I 49 W/m 9,9 C 11,0 C 11,3 km/h (2 Bft) 97,87 %
12.08.2016 07:40 11,8 C 89 % 1024,0 hPa 0,0 l/m 8,1 km/h (2 Bft) W-SW 242 0 min 0,000 mm 0,0 UV-I 49 W/m 10,0 C 10,7 C 11,3 km/h (2 Bft) 97,87 %
12.08.2016 07:42 11,8 C 89 % 1024,0 hPa 0,0 l/m 7,3 km/h (2 Bft) SW 225 0 min 0,000 mm 0,0 UV-I 45 W/m 10,0 C 11,2 C 12,9 km/h (3 Bft) 100,00 %
12.08.2016 07:44 11,8 C 89 % 1024,0 hPa 0,0 l/m 6,8 km/h (2 Bft) SW 225 0 min 0,000 mm 0,0 UV-I 39 W/m 10,0 C 11,5 C 14,5 km/h (3 Bft) 97,14 %
12.08.2016 07:46 11,8 C 89 % 1024,0 hPa 0,0 l/m 7,1 km/h (2 Bft) SW 230 0 min 0,000 mm 0,0 UV-I 38 W/m 10,0 C 11,3 C 11,3 km/h (2 Bft) 100,00 %
12.08.2016 07:48 11,8 C 89 % 1024,0 hPa 0,0 l/m 7,1 km/h (2 Bft) W-SW 248 0 min 0,000 mm 0,0 UV-I 42 W/m 10,0 C 11,3 C 11,3 km/h (2 Bft) 100,00 %
12.08.2016 07:50 11,8 C 89 % 1024,1 hPa 0,0 l/m 7,4 km/h (2 Bft) SW 235 0 min 0,000 mm 0,0 UV-I 47 W/m 10,0 C 11,1 C 9,7 km/h (2 Bft) 97,87 %
12.08.2016 07:52 11,9 C 89 % 1024,1 hPa 0,0 l/m 7,8 km/h (2 Bft) W-SW 240 0 min 0,000 mm 0,0 UV-I 53 W/m 10,1 C 11,0 C 11,3 km/h (2 Bft) 100,00 %
12.08.2016 07:54 11,9 C 89 % 1024,0 hPa 0,0 l/m 8,1 km/h (2 Bft) SW 216 0 min 0,000 mm 0,0 UV-I 53 W/m 10,1 C 10,8 C 12,9 km/h (3 Bft) 100,00 %
12.08.2016 07:56 11,9 C 89 % 1024,1 hPa 0,0 l/m 6,9 km/h (2 Bft) W-SW 237 0 min 0,000 mm 0,0 UV-I 49 W/m 10,1 C 11,6 C 9,7 km/h (2 Bft) 93,75 %
12.08.2016 07:58 11,9 C 89 % 1024,1 hPa 0,0 l/m 7,1 km/h (2 Bft) W-SW 247 0 min 0,000 mm 0,0 UV-I 47 W/m 10,1 C 11,4 C 14,5 km/h (3 Bft) 100,00 %
12.08.2016 08:00 12,0 C 88 % 1024,1 hPa 0,0 l/m 7,6 km/h (2 Bft) SW 223 0 min 0,026 mm 0,0 UV-I 49 W/m 10,1 C 11,2 C 11,3 km/h (2 Bft) 100,00 %
12.08.2016 08:02 12,0 C 88 % 1024,1 hPa 0,0 l/m 8,2 km/h (2 Bft) SW 228 0 min 0,000 mm 0,0 UV-I 58 W/m 10,1 C 10,8 C 12,9 km/h (3 Bft) 100,00 %
12.08.2016 08:04 12,1 C 88 % 1024,1 hPa 0,0 l/m 6,5 km/h (2 Bft) W-SW 244 0 min 0,000 mm 0,0 UV-I 64 W/m 10,2 C 12,1 C 12,9 km/h (3 Bft) 98,00 %
12.08.2016 08:06 12,1 C 89 % 1024,1 hPa 0,0 l/m 7,6 km/h (2 Bft) SW 231 0 min 0,000 mm 0,0 UV-I 73 W/m 10,3 C 11,3 C 9,7 km/h (2 Bft) 100,00 %
12.08.2016 08:08 12,1 C 89 % 1024,2 hPa 0,0 l/m 7,2 km/h (2 Bft) S-SW 200 0 min 0,000 mm 0,0 UV-I 78 W/m 10,3 C 11,6 C 11,3 km/h (2 Bft) 97,87 %
12.08.2016 08:10 12,2 C 89 % 1024,2 hPa 0,0 l/m 6,6 km/h (2 Bft) W-SW 250 0 min 0,000 mm 0,0 UV-I 79 W/m 10,4 C 12,1 C 9,7 km/h (2 Bft) 100,00 %
12.08.2016 08:12 12,2 C 89 % 1024,2 hPa 0,0 l/m 6,8 km/h (2 Bft) W-SW 251 0 min 0,000 mm 0,0 UV-I 81 W/m 10,4 C 11,9 C 14,5 km/h (3 Bft) 100,00 %
12.08.2016 08:14 12,3 C 88 % 1024,2 hPa 0,0 l/m 11,8 km/h (2 Bft) W 261 0 min 0,000 mm 0,0 UV-I 79 W/m 10,4 C 9,3 C 17,7 km/h (3 Bft) 100,00 %
12.08.2016 08:16 12,3 C 88 % 1024,3 hPa 0,0 l/m 9,5 km/h (2 Bft) W 263 0 min 0,000 mm 0,0 UV-I 77 W/m 10,4 C 10,4 C 16,1 km/h (3 Bft) 97,87 %
12.08.2016 08:18 12,3 C 88 % 1024,3 hPa 0,0 l/m 10,6 km/h (2 Bft) W-SW 238 0 min 0,000 mm 0,0 UV-I 78 W/m 10,4 C 9,8 C 16,1 km/h (3 Bft) 100,00 %
12.08.2016 08:20 12,3 C 87 % 1024,3 hPa 0,0 l/m 8,7 km/h (2 Bft) W 275 0 min 0,000 mm 0,0 UV-I 88 W/m 10,2 C 10,8 C 14,5 km/h (3 Bft) 100,00 %
12.08.2016 08:22 12,3 C 88 % 1024,4 hPa 0,0 l/m 6,0 km/h (2 Bft) W 263 0 min 0,000 mm 0,0 UV-I 91 W/m 10,4 C 12,3 C 11,3 km/h (2 Bft) 100,00 %
12.08.2016 08:24 12,3 C 88 % 1024,4 hPa 0,0 l/m 9,6 km/h (2 Bft) W-SW 246 0 min 0,000 mm 0,0 UV-I 94 W/m 10,4 C 10,3 C 16,1 km/h (3 Bft) 100,00 %
12.08.2016 08:26 12,4 C 88 % 1024,4 hPa 0,0 l/m 6,8 km/h (2 Bft) W-SW 258 0 min 0,000 mm 0,0 UV-I 93 W/m 10,5 C 12,1 C 14,5 km/h (3 Bft) 100,00 %
12.08.2016 08:28 12,4 C 88 % 1024,4 hPa 0,0 l/m 5,4 km/h (1 Bft) W-SW 254 0 min 0,000 mm 0,0 UV-I 96 W/m 10,5 C 12,4 C 11,3 km/h (2 Bft) 97,87 %
12.08.2016 08:30 12,3 C 87 % 1024,5 hPa 0,0 l/m 6,9 km/h (2 Bft) W 263 0 min 0,000 mm 0,0 UV-I 103 W/m 10,2 C 12,0 C 12,9 km/h (3 Bft) 100,00 %
12.08.2016 08:32 12,4 C 88 % 1024,5 hPa 0,0 l/m 6,8 km/h (2 Bft) W-SW 242 0 min 0,000 mm 0,0 UV-I 104 W/m 10,5 C 12,1 C 11,3 km/h (2 Bft) 100,00 %
12.08.2016 08:34 12,4 C 87 % 1024,4 hPa 0,0 l/m 7,7 km/h (2 Bft) W-SW 251 0 min 0,000 mm 0,0 UV-I 103 W/m 10,3 C 11,6 C 12,9 km/h (3 Bft) 100,00 %
12.08.2016 08:36 12,4 C 87 % 1024,5 hPa 0,0 l/m 9,2 km/h (2 Bft) W-SW 253 0 min 0,000 mm 0,0 UV-I 106 W/m 10,3 C 10,7 C 12,9 km/h (3 Bft) 100,00 %
12.08.2016 08:38 12,4 C 88 % 1024,5 hPa 0,0 l/m 8,2 km/h (2 Bft) SW 236 0 min 0,000 mm 0,4 UV-I 113 W/m 10,5 C 11,3 C 14,5 km/h (3 Bft) 100,00 %
12.08.2016 08:40 12,4 C 87 % 1024,5 hPa 0,0 l/m 6,7 km/h (2 Bft) SW 236 0 min 0,000 mm 0,5 UV-I 125 W/m 10,3 C 12,2 C 11,3 km/h (2 Bft) 95,74 %
12.08.2016 08:42 12,4 C 88 % 1024,5 hPa 0,0 l/m 7,5 km/h (2 Bft) W 259 0 min 0,000 mm 0,5 UV-I 126 W/m 10,5 C 11,7 C 12,9 km/h (3 Bft) 97,87 %
12.08.2016 08:44 12,4 C 88 % 1024,5 hPa 0,0 l/m 7,9 km/h (2 Bft) W-SW 240 0 min 0,000 mm 0,4 UV-I 114 W/m 10,5 C 11,4 C 12,9 km/h (3 Bft) 97,87 %
12.08.2016 08:46 12,5 C 89 % 1024,5 hPa 0,0 l/m 8,2 km/h (2 Bft) W-SW 252 0 min 0,000 mm 0,0 UV-I 105 W/m 10,7 C 11,4 C 12,9 km/h (3 Bft) 98,11 %
12.08.2016 08:48 12,4 C 88 % 1024,6 hPa 0,0 l/m 8,4 km/h (2 Bft) SW 226 0 min 0,000 mm 0,0 UV-I 101 W/m 10,5 C 11,1 C 14,5 km/h (3 Bft) 97,87 %
12.08.2016 08:50 12,4 C 88 % 1024,6 hPa 0,0 l/m 8,1 km/h (2 Bft) W-SW 239 0 min 0,000 mm 0,0 UV-I 100 W/m 10,5 C 11,3 C 14,5 km/h (3 Bft) 93,62 %
12.08.2016 08:52 12,4 C 89 % 1024,6 hPa 0,0 l/m 6,5 km/h (2 Bft) SW 225 0 min 0,000 mm 0,0 UV-I 106 W/m 10,6 C 12,4 C 12,9 km/h (3 Bft) 97,37 %
12.08.2016 08:54 12,4 C 88 % 1024,6 hPa 0,0 l/m 4,4 km/h (1 Bft) S-SW 213 0 min 0,000 mm 0,0 UV-I 102 W/m 10,5 C 12,4 C 8,0 km/h (2 Bft) 97,87 %
12.08.2016 08:56 12,4 C 89 % 1024,6 hPa 0,0 l/m 5,1 km/h (1 Bft) SW 232 0 min 0,000 mm 0,0 UV-I 89 W/m 10,6 C 12,4 C 8,0 km/h (2 Bft) 97,87 %
12.08.2016 08:58 12,4 C 89 % 1024,6 hPa 0,0 l/m 6,3 km/h (2 Bft) SW 226 0 min 0,000 mm 0,0 UV-I 72 W/m 10,6 C 12,4 C 11,3 km/h (2 Bft) 95,74 %
12.08.2016 09:00 12,4 C 89 % 1024,5 hPa 0,0 l/m 6,5 km/h (2 Bft) SW 225 0 min 0,051 mm 0,0 UV-I 81 W/m 10,6 C 12,4 C 9,7 km/h (2 Bft) 97,87 %
12.08.2016 09:02 12,4 C 89 % 1024,6 hPa 0,0 l/m 4,3 km/h (1 Bft) SW 229 0 min 0,000 mm 0,0 UV-I 86 W/m 10,6 C 12,4 C 8,0 km/h (2 Bft) 98,00 %
12.08.2016 09:04 12,4 C 89 % 1024,4 hPa 0,0 l/m 5,6 km/h (1 Bft) S 188 0 min 0,000 mm 0,0 UV-I 80 W/m 10,6 C 12,4 C 11,3 km/h (2 Bft) 97,87 %
12.08.2016 09:06 12,4 C 89 % 1024,4 hPa 0,0 l/m 4,1 km/h (1 Bft) SW 236 0 min 0,000 mm 0,0 UV-I 77 W/m 10,6 C 12,4 C 8,0 km/h (2 Bft) 97,87 %
12.08.2016 09:08 12,4 C 89 % 1024,5 hPa 0,0 l/m 2,8 km/h (1 Bft) SW 215 0 min 0,000 mm 0,0 UV-I 73 W/m 10,6 C 12,4 C 4,8 km/h (1 Bft) 98,00 %
12.08.2016 09:10 12,4 C 89 % 1024,5 hPa 0,0 l/m 4,9 km/h (1 Bft) W-SW 248 0 min 0,000 mm 0,0 UV-I 66 W/m 10,6 C 12,4 C 6,4 km/h (2 Bft) 97,87 %
12.08.2016 09:12 12,4 C 90 % 1024,5 hPa 0,0 l/m 4,5 km/h (1 Bft) S-SW 198 0 min 0,000 mm 0,0 UV-I 66 W/m 10,8 C 12,4 C 8,0 km/h (2 Bft) 93,62 %
12.08.2016 09:14 12,4 C 89 % 1024,5 hPa 0,0 l/m 3,9 km/h (1 Bft) S 190 0 min 0,000 mm 0,0 UV-I 71 W/m 10,6 C 12,4 C 8,0 km/h (2 Bft) 97,87 %
12.08.2016 09:16 12,4 C 89 % 1024,5 hPa 0,0 l/m 3,5 km/h (1 Bft) S-SW 206 0 min 0,000 mm 0,0 UV-I 87 W/m 10,6 C 12,4 C 8,0 km/h (2 Bft) 100,00 %
12.08.2016 09:18 12,5 C 90 % 1024,5 hPa 0,0 l/m 4,0 km/h (1 Bft) S-SW 192 0 min 0,000 mm 0,5 UV-I 104 W/m 10,9 C 12,5 C 8,0 km/h (2 Bft) 96,00 %
12.08.2016 09:20 12,6 C 90 % 1024,6 hPa 0,0 l/m 2,9 km/h (1 Bft) S-SW 207 0 min 0,000 mm 0,7 UV-I 125 W/m 11,0 C 12,6 C 6,4 km/h (2 Bft) 97,87 %
12.08.2016 09:22 12,7 C 89 % 1024,5 hPa 0,0 l/m 3,5 km/h (1 Bft) SW 231 0 min 0,000 mm 0,9 UV-I 187 W/m 10,9 C 12,7 C 6,4 km/h (2 Bft) 97,87 %
12.08.2016 09:24 12,8 C 90 % 1024,6 hPa 0,0 l/m 2,4 km/h (1 Bft) W-SW 256 0 min 0,000 mm 1,1 UV-I 246 W/m 11,2 C 12,8 C 6,4 km/h (2 Bft) 97,87 %
12.08.2016 09:26 13,0 C 89 % 1024,5 hPa 0,0 l/m 6,0 km/h (2 Bft) S 183 0 min 0,000 mm 1,2 UV-I 273 W/m 11,2 C 13,0 C 11,3 km/h (2 Bft) 97,87 %
12.08.2016 09:28 13,1 C 87 % 1024,5 hPa 0,0 l/m 7,3 km/h (2 Bft) SW 227 0 min 0,000 mm 1,0 UV-I 250 W/m 11,0 C 12,5 C 12,9 km/h (3 Bft) 100,00 %
12.08.2016 09:30 13,2 C 88 % 1024,6 hPa 0,0 l/m 3,0 km/h (1 Bft) SW 231 0 min 0,000 mm 0,7 UV-I 191 W/m 11,3 C 13,2 C 6,4 km/h (2 Bft) 97,87 %
12.08.2016 09:32 13,3 C 89 % 1024,6 hPa 0,0 l/m 3,3 km/h (1 Bft) W-SW 242 0 min 0,000 mm 0,5 UV-I 120 W/m 11,5 C 13,3 C 6,4 km/h (2 Bft) 100,00 %
12.08.2016 09:34 13,3 C 87 % 1024,6 hPa 0,0 l/m 8,9 km/h (2 Bft) W-SW 253 0 min 0,000 mm 0,0 UV-I 78 W/m 11,2 C 11,8 C 14,5 km/h (3 Bft) 100,00 %
12.08.2016 09:36 13,3 C 87 % 1024,7 hPa 0,0 l/m 5,3 km/h (1 Bft) W-SW 248 0 min 0,000 mm 0,0 UV-I 53 W/m 11,2 C 13,3 C 11,3 km/h (2 Bft) 100,00 %
12.08.2016 09:38 13,3 C 87 % 1024,7 hPa 0,0 l/m 3,0 km/h (1 Bft) W-SW 257 0 min 0,000 mm 0,0 UV-I 49 W/m 11,2 C 13,3 C 4,8 km/h (1 Bft) 100,00 %
12.08.2016 09:40 13,3 C 88 % 1024,7 hPa 0,0 l/m 3,1 km/h (1 Bft) W-NW 290 0 min 0,000 mm 0,0 UV-I 61 W/m 11,4 C 13,3 C 4,8 km/h (1 Bft) 100,00 %
12.08.2016 09:42 13,2 C 88 % 1024,8 hPa 0,0 l/m 2,9 km/h (1 Bft) W-SW 254 0 min 0,000 mm 0,0 UV-I 55 W/m 11,3 C 13,2 C 4,8 km/h (1 Bft) 97,87 %
12.08.2016 09:44 13,2 C 87 % 1024,8 hPa 0,0 l/m 4,6 km/h (1 Bft) W-SW 257 0 min 0,000 mm 0,0 UV-I 48 W/m 11,1 C 13,2 C 6,4 km/h (2 Bft) 100,00 %
12.08.2016 09:46 13,2 C 87 % 1024,8 hPa 0,0 l/m 3,1 km/h (1 Bft) W-NW 284 0 min 0,000 mm 0,0 UV-I 57 W/m 11,1 C 13,2 C 4,8 km/h (1 Bft) 100,00 %
12.08.2016 09:48 13,2 C 88 % 1024,8 hPa 0,0 l/m 3,1 km/h (1 Bft) NW 306 0 min 0,000 mm 0,0 UV-I 68 W/m 11,3 C 13,2 C 6,4 km/h (2 Bft) 97,87 %
12.08.2016 09:50 13,2 C 88 % 1024,8 hPa 0,0 l/m 3,3 km/h (1 Bft) W-NW 284 0 min 0,000 mm 0,0 UV-I 74 W/m 11,3 C 13,2 C 9,7 km/h (2 Bft) 100,00 %
12.08.2016 09:52 13,1 C 88 % 1024,8 hPa 0,0 l/m 3,5 km/h (1 Bft) W 270 0 min 0,000 mm 0,0 UV-I 74 W/m 11,2 C 13,1 C 6,4 km/h (2 Bft) 98,00 %
12.08.2016 09:54 13,1 C 88 % 1024,9 hPa 0,0 l/m 3,3 km/h (1 Bft) W 265 0 min 0,000 mm 0,1 UV-I 80 W/m 11,2 C 13,1 C 4,8 km/h (1 Bft) 100,00 %
12.08.2016 09:56 13,1 C 88 % 1024,9 hPa 0,0 l/m 4,8 km/h (1 Bft) W 267 0 min 0,000 mm 0,5 UV-I 91 W/m 11,2 C 13,1 C 9,7 km/h (2 Bft) 100,00 %
12.08.2016 09:58 13,0 C 89 % 1024,9 hPa 0,0 l/m 4,7 km/h (1 Bft) W-SW 254 0 min 0,000 mm 0,4 UV-I 85 W/m 11,2 C 13,0 C 8,0 km/h (2 Bft) 100,00 %
12.08.2016 10:00 12,9 C 89 % 1024,9 hPa 0,0 l/m 6,3 km/h (2 Bft) W-SW 258 0 min 0,050 mm 0,0 UV-I 72 W/m 11,1 C 12,9 C 9,7 km/h (2 Bft) 97,87 %
12.08.2016 10:02 12,8 C 89 % 1025,0 hPa 0,0 l/m 3,9 km/h (1 Bft) W-NW 288 0 min 0,000 mm 0,0 UV-I 69 W/m 11,0 C 12,8 C 6,4 km/h (2 Bft) 100,00 %
12.08.2016 10:04 12,8 C 89 % 1025,0 hPa 0,0 l/m 5,7 km/h (1 Bft) W 259 0 min 0,000 mm 0,0 UV-I 63 W/m 11,0 C 12,8 C 9,7 km/h (2 Bft) 97,87 %
12.08.2016 10:06 12,7 C 89 % 1025,0 hPa 0,0 l/m 3,7 km/h (1 Bft) W-SW 258 0 min 0,000 mm 0,0 UV-I 54 W/m 10,9 C 12,7 C 4,8 km/h (1 Bft) 100,00 %
12.08.2016 10:08 12,6 C 90 % 1025,0 hPa 0,0 l/m 2,0 km/h (1 Bft) W-SW 246 0 min 0,000 mm 0,0 UV-I 53 W/m 11,0 C 12,6 C 4,8 km/h (1 Bft) 100,00 %
12.08.2016 10:10 12,6 C 90 % 1025,0 hPa 0,0 l/m 2,7 km/h (1 Bft) W-NW 287 0 min 0,000 mm 0,0 UV-I 58 W/m 11,0 C 12,6 C 6,4 km/h (2 Bft) 97,87 %
12.08.2016 10:12 12,5 C 91 % 1025,0 hPa 0,0 l/m 2,0 km/h (1 Bft) W-NW 288 0 min 0,000 mm 0,0 UV-I 63 W/m 11,1 C 12,5 C 3,2 km/h (1 Bft) 100,00 %
12.08.2016 10:14 12,5 C 91 % 1025,0 hPa 0,0 l/m 4,0 km/h (1 Bft) W 272 0 min 0,000 mm 0,0 UV-I 70 W/m 11,1 C 12,5 C 6,4 km/h (2 Bft) 98,00 %
12.08.2016 10:16 12,5 C 91 % 1025,0 hPa 0,0 l/m 2,2 km/h (1 Bft) W 272 0 min 0,000 mm 0,5 UV-I 76 W/m 11,1 C 12,5 C 4,8 km/h (1 Bft) 100,00 %
12.08.2016 10:18 12,5 C 91 % 1025,0 hPa 0,0 l/m 2,1 km/h (1 Bft) W-SW 240 0 min 0,000 mm 0,5 UV-I 75 W/m 11,1 C 12,5 C 3,2 km/h (1 Bft) 100,00 %
12.08.2016 10:20 12,5 C 91 % 1025,0 hPa 0,0 l/m 2,7 km/h (1 Bft) W 261 0 min 0,000 mm 0,5 UV-I 77 W/m 11,1 C 12,5 C 4,8 km/h (1 Bft) 100,00 %
12.08.2016 10:22 12,5 C 92 % 1025,0 hPa 0,0 l/m 2,7 km/h (1 Bft) W 260 0 min 0,000 mm 0,5 UV-I 76 W/m 11,2 C 12,5 C 4,8 km/h (1 Bft) 100,00 %
12.08.2016 10:24 12,6 C 92 % 1025,0 hPa 0,0 l/m 2,5 km/h (1 Bft) W 260 0 min 0,000 mm 0,5 UV-I 75 W/m 11,3 C 12,6 C 4,8 km/h (1 Bft) 100,00 %
12.08.2016 10:26 12,6 C 91 % 1025,0 hPa 0,0 l/m 2,6 km/h (1 Bft) W-SW 241 0 min 0,000 mm 0,5 UV-I 74 W/m 11,2 C 12,6 C 4,8 km/h (1 Bft) 97,87 %
12.08.2016 10:28 12,6 C 91 % 1025,0 hPa 0,0 l/m 2,3 km/h (1 Bft) W-SW 241 0 min 0,000 mm 0,6 UV-I 87 W/m 11,2 C 12,6 C 4,8 km/h (1 Bft) 100,00 %
12.08.2016 10:30 12,6 C 91 % 1025,0 hPa 0,0 l/m 2,5 km/h (1 Bft) W-SW 241 0 min 0,000 mm 0,6 UV-I 97 W/m 11,2 C 12,6 C 3,2 km/h (1 Bft) 97,87 %
12.08.2016 10:32 12,7 C 92 % 1025,0 hPa 0,0 l/m 3,1 km/h (1 Bft) W 269 0 min 0,000 mm 0,7 UV-I 109 W/m 11,4 C 12,7 C 4,8 km/h (1 Bft) 100,00 %
12.08.2016 10:34 12,7 C 91 % 1025,0 hPa 0,0 l/m 2,9 km/h (1 Bft) W 269 0 min 0,000 mm 0,7 UV-I 106 W/m 11,3 C 12,7 C 4,8 km/h (1 Bft) 97,87 %
12.08.2016 10:36 12,8 C 91 % 1025,0 hPa 0,0 l/m 4,3 km/h (1 Bft) W 263 0 min 0,000 mm 0,7 UV-I 107 W/m 11,4 C 12,8 C 6,4 km/h (2 Bft) 97,87 %
12.08.2016 10:38 12,8 C 91 % 1025,0 hPa 0,0 l/m 3,6 km/h (1 Bft) W 259 0 min 0,000 mm 0,7 UV-I 110 W/m 11,4 C 12,8 C 4,8 km/h (1 Bft) 97,87 %
12.08.2016 10:40 12,9 C 91 % 1025,0 hPa 0,0 l/m 5,2 km/h (1 Bft) W 261 0 min 0,000 mm 0,8 UV-I 116 W/m 11,5 C 12,9 C 6,4 km/h (2 Bft) 100,00 %
12.08.2016 10:42 12,9 C 90 % 1024,9 hPa 0,0 l/m 3,2 km/h (1 Bft) W-SW 256 0 min 0,000 mm 0,8 UV-I 109 W/m 11,3 C 12,9 C 6,4 km/h (2 Bft) 94,00 %
12.08.2016 10:44 13,0 C 90 % 1024,9 hPa 0,0 l/m 4,2 km/h (1 Bft) W-SW 254 0 min 0,000 mm 0,7 UV-I 96 W/m 11,4 C 13,0 C 6,4 km/h (2 Bft) 97,14 %
12.08.2016 10:46 13,1 C 90 % 1024,9 hPa 0,0 l/m 7,3 km/h (2 Bft) W-SW 251 0 min 0,000 mm 0,7 UV-I 97 W/m 11,5 C 12,5 C 11,3 km/h (2 Bft) 96,23 %
12.08.2016 10:48 13,1 C 89 % 1024,9 hPa 0,0 l/m 9,7 km/h (2 Bft) W-SW 244 0 min 0,000 mm 0,7 UV-I 92 W/m 11,3 C 11,2 C 14,5 km/h (3 Bft) 95,74 %
12.08.2016 10:50 13,2 C 88 % 1024,9 hPa 0,0 l/m 11,5 km/h (2 Bft) W-SW 247 0 min 0,000 mm 0,8 UV-I 110 W/m 11,3 C 10,4 C 17,7 km/h (3 Bft) 97,87 %
12.08.2016 10:52 13,2 C 86 % 1024,9 hPa 0,0 l/m 14,6 km/h (3 Bft) SW 228 0 min 0,000 mm 0,8 UV-I 112 W/m 10,9 C 9,2 C 20,9 km/h (4 Bft) 95,74 %
12.08.2016 10:54 13,3 C 86 % 1025,0 hPa 0,0 l/m 18,5 km/h (3 Bft) SW 217 0 min 0,000 mm 0,7 UV-I 105 W/m 11,0 C 8,0 C 29,0 km/h (5 Bft) 95,74 %
12.08.2016 10:56 13,3 C 86 % 1025,0 hPa 0,0 l/m 13,6 km/h (3 Bft) S 184 0 min 0,000 mm 0,8 UV-I 110 W/m 11,0 C 9,7 C 22,5 km/h (4 Bft) 96,00 %
12.08.2016 10:58 13,2 C 86 % 1025,0 hPa 0,0 l/m 16,6 km/h (3 Bft) SW 228 0 min 0,000 mm 0,8 UV-I 111 W/m 10,9 C 8,5 C 25,7 km/h (4 Bft) 97,87 %
12.08.2016 11:00 13,1 C 86 % 1025,0 hPa 0,0 l/m 22,3 km/h (4 Bft) W-SW 241 0 min 0,051 mm 0,7 UV-I 107 W/m 10,8 C 6,7 C 30,6 km/h (5 Bft) 98,00 %
12.08.2016 11:02 13,1 C 87 % 1025,0 hPa 0,0 l/m 19,0 km/h (3 Bft) SW 223 0 min 0,000 mm 0,7 UV-I 108 W/m 11,0 C 7,6 C 27,4 km/h (4 Bft) 97,22 %
12.08.2016 11:04 13,0 C 86 % 1025,0 hPa 0,0 l/m 19,6 km/h (3 Bft) W 262 0 min 0,000 mm 0,8 UV-I 121 W/m 10,7 C 7,3 C 29,0 km/h (5 Bft) 96,00 %
12.08.2016 11:06 12,9 C 87 % 1025,1 hPa 0,0 l/m 14,1 km/h (3 Bft) SW 235 0 min 0,000 mm 0,8 UV-I 121 W/m 10,8 C 9,0 C 27,4 km/h (4 Bft) 98,00 %
12.08.2016 11:08 12,9 C 87 % 1025,0 hPa 0,0 l/m 18,5 km/h (3 Bft) S 169 0 min 0,000 mm 0,9 UV-I 124 W/m 10,8 C 7,5 C 29,0 km/h (5 Bft) 97,87 %
12.08.2016 11:10 13,0 C 87 % 1025,0 hPa 0,0 l/m 15,7 km/h (3 Bft) SW 223 0 min 0,000 mm 0,9 UV-I 130 W/m 10,9 C 8,5 C 24,1 km/h (4 Bft) 96,00 %
12.08.2016 11:12 13,1 C 87 % 1025,0 hPa 0,0 l/m 16,1 km/h (3 Bft) W-SW 244 0 min 0,000 mm 1,0 UV-I 146 W/m 11,0 C 8,5 C 20,9 km/h (4 Bft) 93,75 %
12.08.2016 11:14 13,1 C 87 % 1025,0 hPa 0,0 l/m 19,0 km/h (3 Bft) W-SW 251 0 min 0,000 mm 1,2 UV-I 165 W/m 11,0 C 7,6 C 27,4 km/h (4 Bft) 100,00 %
12.08.2016 11:16 13,1 C 87 % 1025,1 hPa 0,0 l/m 14,8 km/h (3 Bft) SW 227 0 min 0,000 mm 1,3 UV-I 186 W/m 11,0 C 9,0 C 27,4 km/h (4 Bft) 97,22 %
12.08.2016 11:18 13,1 C 86 % 1025,0 hPa 0,0 l/m 15,2 km/h (3 Bft) W-SW 238 0 min 0,000 mm 1,3 UV-I 181 W/m 10,8 C 8,8 C 25,7 km/h (4 Bft) 98,00 %
12.08.2016 11:20 13,2 C 86 % 1025,0 hPa 0,0 l/m 20,9 km/h (4 Bft) W-SW 257 0 min 0,000 mm 1,0 UV-I 133 W/m 10,9 C 7,2 C 29,0 km/h (5 Bft) 97,87 %
12.08.2016 11:22 13,2 C 86 % 1025,0 hPa 0,0 l/m 20,3 km/h (4 Bft) W-SW 246 0 min 0,000 mm 1,0 UV-I 143 W/m 10,9 C 7,3 C 29,0 km/h (5 Bft) 97,87 %
12.08.2016 11:24 13,2 C 86 % 1025,0 hPa 0,0 l/m 18,1 km/h (3 Bft) W-SW 241 0 min 0,000 mm 1,1 UV-I 154 W/m 10,9 C 8,0 C 25,7 km/h (4 Bft) 100,00 %
12.08.2016 11:26 13,3 C 86 % 1025,1 hPa 0,0 l/m 15,8 km/h (3 Bft) W-SW 244 0 min 0,000 mm 1,2 UV-I 163 W/m 11,0 C 8,9 C 25,7 km/h (4 Bft) 97,87 %
12.08.2016 11:28 13,3 C 86 % 1025,0 hPa 0,0 l/m 13,9 km/h (3 Bft) W-NW 292 0 min 0,000 mm 1,4 UV-I 196 W/m 11,0 C 9,5 C 24,1 km/h (4 Bft) 100,00 %
12.08.2016 11:30 13,3 C 86 % 1025,0 hPa 0,0 l/m 13,4 km/h (3 Bft) S-SW 202 0 min 0,000 mm 1,3 UV-I 185 W/m 11,0 C 9,7 C 22,5 km/h (4 Bft) 100,00 %
12.08.2016 11:32 13,4 C 86 % 1025,1 hPa 0,0 l/m 17,7 km/h (3 Bft) W-SW 249 0 min 0,000 mm 1,3 UV-I 179 W/m 11,1 C 8,4 C 27,4 km/h (4 Bft) 100,00 %
12.08.2016 11:34 13,5 C 86 % 1025,1 hPa 0,0 l/m 14,6 km/h (3 Bft) W-SW 243 0 min 0,000 mm 1,6 UV-I 210 W/m 11,2 C 9,5 C 20,9 km/h (4 Bft) 97,87 %
12.08.2016 11:36 13,5 C 85 % 1025,1 hPa 0,0 l/m 16,7 km/h (3 Bft) W-SW 237 0 min 0,000 mm 1,6 UV-I 208 W/m 11,0 C 8,8 C 24,1 km/h (4 Bft) 100,00 %
12.08.2016 11:38 13,6 C 85 % 1025,1 hPa 0,0 l/m 17,8 km/h (3 Bft) W-SW 244 0 min 0,000 mm 1,8 UV-I 235 W/m 11,1 C 8,6 C 29,0 km/h (5 Bft) 97,87 %
12.08.2016 11:40 13,6 C 84 % 1025,1 hPa 0,0 l/m 24,6 km/h (4 Bft) W-SW 250 0 min 0,000 mm 1,6 UV-I 212 W/m 10,9 C 6,8 C 35,4 km/h (5 Bft) 100,00 %
12.08.2016 11:42 13,6 C 84 % 1025,1 hPa 0,0 l/m 25,1 km/h (4 Bft) W 263 0 min 0,000 mm 1,2 UV-I 165 W/m 10,9 C 6,7 C 38,6 km/h (5 Bft) 100,00 %
12.08.2016 11:44 13,6 C 84 % 1025,2 hPa 0,0 l/m 22,0 km/h (4 Bft) W-SW 255 0 min 0,000 mm 1,0 UV-I 129 W/m 10,9 C 7,4 C 29,0 km/h (5 Bft) 100,00 %
12.08.2016 11:46 13,5 C 85 % 1025,1 hPa 0,0 l/m 17,8 km/h (3 Bft) W-SW 248 0 min 0,000 mm 1,3 UV-I 166 W/m 11,0 C 8,4 C 29,0 km/h (5 Bft) 97,37 %
12.08.2016 11:48 13,5 C 85 % 1025,1 hPa 0,0 l/m 20,7 km/h (4 Bft) S 190 0 min 0,000 mm 1,7 UV-I 220 W/m 11,0 C 7,6 C 29,0 km/h (5 Bft) 100,00 %
12.08.2016 11:50 13,5 C 85 % 1025,1 hPa 0,0 l/m 18,9 km/h (3 Bft) W-SW 245 0 min 0,000 mm 1,7 UV-I 223 W/m 11,0 C 8,1 C 25,7 km/h (4 Bft) 100,00 %
12.08.2016 11:52 13,6 C 85 % 1025,1 hPa 0,0 l/m 17,9 km/h (3 Bft) W 268 0 min 0,000 mm 2,0 UV-I 266 W/m 11,1 C 8,5 C 29,0 km/h (5 Bft) 97,87 %
12.08.2016 11:54 13,7 C 86 % 1025,1 hPa 0,0 l/m 17,9 km/h (3 Bft) S-SW 207 0 min 0,000 mm 2,1 UV-I 278 W/m 11,4 C 8,7 C 30,6 km/h (5 Bft) 100,00 %
12.08.2016 11:56 13,7 C 84 % 1025,1 hPa 0,0 l/m 23,7 km/h (4 Bft) SW 224 0 min 0,000 mm 2,1 UV-I 282 W/m 11,0 C 7,1 C 33,8 km/h (5 Bft) 97,87 %
12.08.2016 11:58 13,8 C 84 % 1025,1 hPa 0,0 l/m 23,2 km/h (4 Bft) SW 233 0 min 0,000 mm 2,3 UV-I 308 W/m 11,1 C 7,4 C 33,8 km/h (5 Bft) 100,00 %
12.08.2016 12:00 13,8 C 84 % 1025,1 hPa 0,0 l/m 20,4 km/h (4 Bft) S-SW 213 0 min 0,000 mm 2,2 UV-I 284 W/m 11,1 C 8,1 C 30,6 km/h (5 Bft) 97,92 %
12.08.2016 12:02 13,8 C 85 % 1025,1 hPa 0,0 l/m 20,1 km/h (4 Bft) W-SW 250 0 min 0,127 mm 1,8 UV-I 239 W/m 11,3 C 8,2 C 33,8 km/h (5 Bft) 100,00 %
12.08.2016 12:04 13,9 C 85 % 1025,1 hPa 0,0 l/m 16,9 km/h (3 Bft) W-SW 254 0 min 0,000 mm 1,8 UV-I 233 W/m 11,4 C 9,2 C 22,5 km/h (4 Bft) 100,00 %
12.08.2016 12:06 13,9 C 85 % 1025,1 hPa 0,0 l/m 14,3 km/h (3 Bft) W-SW 249 0 min 0,000 mm 1,8 UV-I 237 W/m 11,4 C 10,1 C 22,5 km/h (4 Bft) 100,00 %
12.08.2016 12:08 14,0 C 84 % 1025,1 hPa 0,0 l/m 18,2 km/h (3 Bft) W-SW 248 0 min 0,000 mm 1,6 UV-I 218 W/m 11,3 C 9,0 C 25,7 km/h (4 Bft) 100,00 %
12.08.2016 12:10 13,9 C 84 % 1025,1 hPa 0,0 l/m 21,6 km/h (4 Bft) W-SW 257 0 min 0,000 mm 1,8 UV-I 228 W/m 11,2 C 7,9 C 33,8 km/h (5 Bft) 100,00 %
12.08.2016 12:12 13,9 C 85 % 1025,1 hPa 0,0 l/m 14,1 km/h (3 Bft) W-SW 248 0 min 0,000 mm 1,9 UV-I 255 W/m 11,4 C 10,2 C 24,1 km/h (4 Bft) 97,87 %
12.08.2016 12:14 14,0 C 85 % 1025,1 hPa 0,0 l/m 16,9 km/h (3 Bft) SW 225 0 min 0,000 mm 1,5 UV-I 197 W/m 11,5 C 9,4 C 22,5 km/h (4 Bft) 100,00 %
12.08.2016 12:16 14,0 C 85 % 1025,2 hPa 0,0 l/m 13,8 km/h (3 Bft) SW 221 0 min 0,000 mm 1,4 UV-I 175 W/m 11,5 C 10,4 C 19,3 km/h (3 Bft) 100,00 %
12.08.2016 12:18 14,0 C 85 % 1025,2 hPa 0,0 l/m 12,5 km/h (3 Bft) W 261 0 min 0,000 mm 1,4 UV-I 174 W/m 11,5 C 10,9 C 20,9 km/h (4 Bft) 100,00 %
12.08.2016 12:20 14,0 C 85 % 1025,2 hPa 0,0 l/m 12,8 km/h (3 Bft) SW 234 0 min 0,000 mm 1,2 UV-I 154 W/m 11,5 C 10,8 C 19,3 km/h (3 Bft) 100,00 %
12.08.2016 12:22 13,9 C 85 % 1025,1 hPa 0,0 l/m 15,4 km/h (3 Bft) W-SW 240 0 min 0,000 mm 1,2 UV-I 146 W/m 11,4 C 9,7 C 24,1 km/h (4 Bft) 100,00 %
12.08.2016 12:24 13,9 C 84 % 1025,2 hPa 0,0 l/m 16,7 km/h (3 Bft) W-SW 242 0 min 0,000 mm 1,0 UV-I 136 W/m 11,2 C 9,3 C 25,7 km/h (4 Bft) 100,00 %
12.08.2016 12:26 13,8 C 85 % 1025,1 hPa 0,0 l/m 15,5 km/h (3 Bft) W-SW 252 0 min 0,000 mm 0,9 UV-I 115 W/m 11,3 C 9,6 C 24,1 km/h (4 Bft) 100,00 %
12.08.2016 12:28 13,8 C 85 % 1025,2 hPa 0,0 l/m 13,9 km/h (3 Bft) W 263 0 min 0,000 mm 0,8 UV-I 100 W/m 11,3 C 10,1 C 27,4 km/h (4 Bft) 100,00 %
12.08.2016 12:30 13,8 C 85 % 1025,1 hPa 0,0 l/m 15,5 km/h (3 Bft) SW 236 0 min 0,000 mm 0,8 UV-I 102 W/m 11,3 C 9,6 C 22,5 km/h (4 Bft) 97,87 %
12.08.2016 12:32 13,8 C 85 % 1025,1 hPa 0,0 l/m 20,9 km/h (4 Bft) S-SW 213 0 min 0,000 mm 1,0 UV-I 128 W/m 11,3 C 8,0 C 29,0 km/h (5 Bft) 100,00 %
12.08.2016 12:34 13,8 C 85 % 1025,1 hPa 0,0 l/m 15,6 km/h (3 Bft) SW 222 0 min 0,000 mm 1,0 UV-I 128 W/m 11,3 C 9,5 C 29,0 km/h (5 Bft) 100,00 %
12.08.2016 12:36 13,8 C 85 % 1025,1 hPa 0,0 l/m 16,6 km/h (3 Bft) W-SW 246 0 min 0,000 mm 0,9 UV-I 118 W/m 11,3 C 9,2 C 24,1 km/h (4 Bft) 100,00 %
12.08.2016 12:38 13,8 C 85 % 1025,1 hPa 0,0 l/m 11,7 km/h (2 Bft) SW 217 0 min 0,000 mm 0,9 UV-I 110 W/m 11,3 C 11,0 C 19,3 km/h (3 Bft) 97,87 %
12.08.2016 12:40 13,8 C 85 % 1025,1 hPa 0,0 l/m 10,9 km/h (2 Bft) W-SW 250 0 min 0,000 mm 0,8 UV-I 104 W/m 11,3 C 11,4 C 16,1 km/h (3 Bft) 96,00 %
12.08.2016 12:42 13,8 C 85 % 1025,1 hPa 0,0 l/m 17,0 km/h (3 Bft) W-SW 241 0 min 0,000 mm 0,9 UV-I 112 W/m 11,3 C 9,1 C 27,4 km/h (4 Bft) 98,00 %
12.08.2016 12:44 13,8 C 85 % 1025,1 hPa 0,0 l/m 14,6 km/h (3 Bft) W-SW 251 0 min 0,000 mm 0,8 UV-I 106 W/m 11,3 C 9,9 C 24,1 km/h (4 Bft) 97,87 %
12.08.2016 12:46 13,9 C 85 % 1025,1 hPa 0,0 l/m 17,1 km/h (3 Bft) SW 236 0 min 0,000 mm 1,0 UV-I 129 W/m 11,4 C 9,2 C 22,5 km/h (4 Bft) 97,87 %
12.08.2016 12:48 13,9 C 85 % 1025,1 hPa 0,0 l/m 13,5 km/h (3 Bft) SW 221 0 min 0,000 mm 1,1 UV-I 143 W/m 11,4 C 10,4 C 22,5 km/h (4 Bft) 97,87 %
12.08.2016 12:50 13,9 C 85 % 1025,1 hPa 0,0 l/m 15,9 km/h (3 Bft) W-SW 257 0 min 0,000 mm 1,1 UV-I 137 W/m 11,4 C 9,6 C 24,1 km/h (4 Bft) 97,87 %
12.08.2016 12:52 13,9 C 85 % 1025,1 hPa 0,0 l/m 18,4 km/h (3 Bft) S-SW 213 0 min 0,000 mm 1,0 UV-I 133 W/m 11,4 C 8,8 C 29,0 km/h (5 Bft) 94,74 %
12.08.2016 12:54 13,9 C 84 % 1025,1 hPa 0,0 l/m 17,7 km/h (3 Bft) SW 231 0 min 0,000 mm 1,1 UV-I 136 W/m 11,2 C 9,0 C 27,4 km/h (4 Bft) 97,87 %
12.08.2016 12:56 13,9 C 84 % 1025,1 hPa 0,0 l/m 16,6 km/h (3 Bft) W-SW 241 0 min 0,000 mm 1,2 UV-I 148 W/m 11,2 C 9,3 C 27,4 km/h (4 Bft) 98,00 %
12.08.2016 12:58 14,0 C 85 % 1025,1 hPa 0,0 l/m 17,1 km/h (3 Bft) SW 232 0 min 0,000 mm 1,2 UV-I 145 W/m 11,5 C 9,3 C 25,7 km/h (4 Bft) 95,74 %
12.08.2016 13:00 14,0 C 84 % 1025,1 hPa 0,0 l/m 13,8 km/h (3 Bft) W-SW 250 0 min 0,000 mm 1,3 UV-I 163 W/m 11,3 C 10,4 C 19,3 km/h (3 Bft) 95,74 %
12.08.2016 13:02 14,1 C 85 % 1025,1 hPa 0,0 l/m 13,4 km/h (3 Bft) SW 232 0 min 0,102 mm 1,3 UV-I 158 W/m 11,6 C 10,7 C 20,9 km/h (4 Bft) 98,00 %
12.08.2016 13:04 14,1 C 85 % 1025,1 hPa 0,0 l/m 13,9 km/h (3 Bft) W-SW 247 0 min 0,000 mm 1,2 UV-I 154 W/m 11,6 C 10,5 C 22,5 km/h (4 Bft) 97,87 %
12.08.2016 13:06 14,1 C 84 % 1025,1 hPa 0,0 l/m 13,5 km/h (3 Bft) SW 219 0 min 0,000 mm 1,5 UV-I 185 W/m 11,4 C 10,6 C 24,1 km/h (4 Bft) 97,87 %
12.08.2016 13:08 14,1 C 84 % 1025,1 hPa 0,0 l/m 15,4 km/h (3 Bft) W-SW 248 0 min 0,000 mm 1,7 UV-I 214 W/m 11,4 C 10,0 C 24,1 km/h (4 Bft) 94,87 %
12.08.2016 13:10 14,2 C 84 % 1025,1 hPa 0,0 l/m 12,2 km/h (2 Bft) W 272 0 min 0,000 mm 1,9 UV-I 245 W/m 11,5 C 11,3 C 20,9 km/h (4 Bft) 98,00 %
12.08.2016 13:12 14,2 C 84 % 1025,1 hPa 0,0 l/m 17,0 km/h (3 Bft) SW 220 0 min 0,000 mm 2,1 UV-I 261 W/m 11,5 C 9,6 C 29,0 km/h (5 Bft) 97,87 %
12.08.2016 13:14 14,2 C 84 % 1025,0 hPa 0,0 l/m 15,5 km/h (3 Bft) S-SW 211 0 min 0,000 mm 1,9 UV-I 241 W/m 11,5 C 10,1 C 24,1 km/h (4 Bft) 98,00 %
12.08.2016 13:16 14,3 C 85 % 1025,0 hPa 0,0 l/m 13,8 km/h (3 Bft) W 259 0 min 0,000 mm 2,0 UV-I 249 W/m 11,8 C 10,8 C 25,7 km/h (4 Bft) 97,87 %
12.08.2016 13:18 14,3 C 84 % 1025,1 hPa 0,0 l/m 19,6 km/h (3 Bft) W 273 0 min 0,000 mm 2,0 UV-I 249 W/m 11,6 C 8,9 C 32,2 km/h (5 Bft) 97,87 %
12.08.2016 13:20 14,4 C 84 % 1025,1 hPa 0,0 l/m 13,8 km/h (3 Bft) S-SW 203 0 min 0,000 mm 1,6 UV-I 210 W/m 11,7 C 10,9 C 22,5 km/h (4 Bft) 97,87 %
12.08.2016 13:22 14,4 C 84 % 1025,1 hPa 0,0 l/m 17,2 km/h (3 Bft) W 266 0 min 0,000 mm 1,8 UV-I 238 W/m 11,7 C 9,8 C 29,0 km/h (5 Bft) 94,29 %
12.08.2016 13:24 14,4 C 83 % 1025,1 hPa 0,0 l/m 22,3 km/h (4 Bft) SW 231 0 min 0,000 mm 2,0 UV-I 257 W/m 11,5 C 8,4 C 32,2 km/h (5 Bft) 98,00 %
12.08.2016 13:26 14,3 C 84 % 1025,1 hPa 0,0 l/m 18,0 km/h (3 Bft) SW 224 0 min 0,000 mm 1,9 UV-I 241 W/m 11,6 C 9,4 C 25,7 km/h (4 Bft) 100,00 %
12.08.2016 13:28 14,3 C 84 % 1025,1 hPa 0,0 l/m 19,3 km/h (3 Bft) SW 221 0 min 0,000 mm 2,0 UV-I 258 W/m 11,6 C 9,0 C 29,0 km/h (5 Bft) 100,00 %
12.08.2016 13:30 14,3 C 85 % 1025,1 hPa 0,0 l/m 16,7 km/h (3 Bft) SW 233 0 min 0,000 mm 2,2 UV-I 280 W/m 11,8 C 9,8 C 27,4 km/h (4 Bft) 97,87 %
12.08.2016 13:32 14,4 C 85 % 1025,1 hPa 0,0 l/m 18,0 km/h (3 Bft) W-SW 244 0 min 0,000 mm 2,2 UV-I 287 W/m 11,9 C 9,5 C 22,5 km/h (4 Bft) 97,87 %
12.08.2016 13:34 14,4 C 85 % 1025,2 hPa 0,0 l/m 17,2 km/h (3 Bft) S-SW 203 0 min 0,000 mm 2,1 UV-I 272 W/m 11,9 C 9,8 C 25,7 km/h (4 Bft) 100,00 %
12.08.2016 13:36 14,3 C 86 % 1025,1 hPa 0,0 l/m 17,4 km/h (3 Bft) W 272 0 min 0,000 mm 2,4 UV-I 309 W/m 12,0 C 9,6 C 29,0 km/h (5 Bft) 97,87 %
12.08.2016 13:38 14,3 C 86 % 1025,1 hPa 0,0 l/m 19,5 km/h (3 Bft) S-SW 209 0 min 0,000 mm 2,6 UV-I 343 W/m 12,0 C 9,0 C 30,6 km/h (5 Bft) 98,00 %
12.08.2016 13:40 14,4 C 87 % 1025,2 hPa 0,0 l/m 10,6 km/h (2 Bft) SW 217 0 min 0,000 mm 2,7 UV-I 343 W/m 12,3 C 12,2 C 16,1 km/h (3 Bft) 97,87 %
12.08.2016 13:42 14,4 C 86 % 1025,2 hPa 0,0 l/m 16,9 km/h (3 Bft) SW 224 0 min 0,000 mm 2,7 UV-I 355 W/m 12,1 C 9,9 C 24,1 km/h (4 Bft) 95,74 %
12.08.2016 13:44 14,4 C 87 % 1025,1 hPa 0,0 l/m 20,3 km/h (4 Bft) SW 230 0 min 0,000 mm 2,9 UV-I 392 W/m 12,3 C 8,9 C 27,4 km/h (4 Bft) 100,00 %
12.08.2016 13:46 14,5 C 87 % 1025,1 hPa 0,0 l/m 15,6 km/h (3 Bft) W 272 0 min 0,000 mm 3,0 UV-I 401 W/m 12,4 C 10,4 C 20,9 km/h (4 Bft) 100,00 %
12.08.2016 13:48 14,6 C 87 % 1025,1 hPa 0,0 l/m 17,3 km/h (3 Bft) SW 217 0 min 0,000 mm 2,7 UV-I 348 W/m 12,5 C 10,0 C 27,4 km/h (4 Bft) 100,00 %
12.08.2016 13:50 14,6 C 87 % 1025,1 hPa 0,0 l/m 15,4 km/h (3 Bft) W-SW 242 0 min 0,000 mm 2,1 UV-I 276 W/m 12,5 C 10,6 C 22,5 km/h (4 Bft) 97,87 %
12.08.2016 13:52 14,6 C 87 % 1025,1 hPa 0,0 l/m 10,2 km/h (2 Bft) SW 229 0 min 0,000 mm 2,2 UV-I 271 W/m 12,5 C 12,6 C 19,3 km/h (3 Bft) 97,92 %
12.08.2016 13:54 14,6 C 87 % 1025,1 hPa 0,0 l/m 10,2 km/h (2 Bft) S-SW 209 0 min 0,000 mm 2,1 UV-I 259 W/m 12,5 C 12,6 C 22,5 km/h (4 Bft) 100,00 %
12.08.2016 13:56 14,6 C 87 % 1025,0 hPa 0,0 l/m 11,4 km/h (2 Bft) W-NW 282 0 min 0,000 mm 2,1 UV-I 254 W/m 12,5 C 12,1 C 16,1 km/h (3 Bft) 100,00 %
12.08.2016 13:58 14,6 C 89 % 1025,1 hPa 0,0 l/m 10,7 km/h (2 Bft) SW 231 0 min 0,000 mm 2,2 UV-I 271 W/m 12,8 C 12,4 C 20,9 km/h (4 Bft) 100,00 %
12.08.2016 14:00 14,6 C 88 % 1025,1 hPa 0,0 l/m 12,5 km/h (3 Bft) W 261 0 min 0,000 mm 1,9 UV-I 240 W/m 12,6 C 11,6 C 17,7 km/h (3 Bft) 97,87 %
12.08.2016 14:02 14,6 C 88 % 1025,0 hPa 0,0 l/m 13,0 km/h (3 Bft) W-SW 241 0 min 0,152 mm 1,7 UV-I 218 W/m 12,6 C 11,4 C 30,6 km/h (5 Bft) 100,00 %
12.08.2016 14:04 14,6 C 87 % 1025,0 hPa 0,0 l/m 17,6 km/h (3 Bft) W-SW 256 0 min 0,000 mm 1,7 UV-I 212 W/m 12,5 C 9,9 C 25,7 km/h (4 Bft) 95,74 %
12.08.2016 14:06 14,6 C 87 % 1025,1 hPa 0,0 l/m 14,4 km/h (3 Bft) W-SW 240 0 min 0,000 mm 1,6 UV-I 204 W/m 12,5 C 10,9 C 19,3 km/h (3 Bft) 100,00 %
12.08.2016 14:08 14,6 C 87 % 1025,1 hPa 0,0 l/m 11,6 km/h (2 Bft) SW 230 0 min 0,000 mm 1,4 UV-I 177 W/m 12,5 C 12,0 C 20,9 km/h (4 Bft) 100,00 %
12.08.2016 14:10 14,6 C 87 % 1025,1 hPa 0,0 l/m 12,8 km/h (3 Bft) W-SW 238 0 min 0,000 mm 1,2 UV-I 149 W/m 12,5 C 11,5 C 25,7 km/h (4 Bft) 100,00 %
12.08.2016 14:12 14,5 C 86 % 1025,1 hPa 0,0 l/m 16,3 km/h (3 Bft) SW 226 0 min 0,000 mm 1,1 UV-I 133 W/m 12,2 C 10,2 C 20,9 km/h (4 Bft) 100,00 %
12.08.2016 14:14 14,5 C 86 % 1025,0 hPa 0,0 l/m 10,8 km/h (2 Bft) W-SW 252 0 min 0,000 mm 1,0 UV-I 120 W/m 12,2 C 12,2 C 17,7 km/h (3 Bft) 97,87 %
12.08.2016 14:16 14,5 C 86 % 1025,0 hPa 0,0 l/m 11,9 km/h (2 Bft) SW 234 0 min 0,000 mm 0,9 UV-I 111 W/m 12,2 C 11,7 C 20,9 km/h (4 Bft) 100,00 %
12.08.2016 14:18 14,5 C 86 % 1025,0 hPa 0,0 l/m 13,7 km/h (3 Bft) W-SW 254 0 min 0,000 mm 0,9 UV-I 107 W/m 12,2 C 11,0 C 20,9 km/h (4 Bft) 100,00 %
12.08.2016 14:20 14,6 C 86 % 1025,0 hPa 0,0 l/m 15,4 km/h (3 Bft) W-SW 252 0 min 0,000 mm 1,0 UV-I 116 W/m 12,3 C 10,6 C 24,1 km/h (4 Bft) 100,00 %
12.08.2016 14:22 14,5 C 86 % 1025,0 hPa 0,0 l/m 15,9 km/h (3 Bft) W-SW 258 0 min 0,000 mm 1,0 UV-I 119 W/m 12,2 C 10,3 C 30,6 km/h (5 Bft) 100,00 %
12.08.2016 14:24 14,6 C 85 % 1025,0 hPa 0,0 l/m 19,6 km/h (3 Bft) S-SO 167 0 min 0,000 mm 0,9 UV-I 113 W/m 12,1 C 9,3 C 30,6 km/h (5 Bft) 100,00 %
12.08.2016 14:26 14,6 C 85 % 1025,0 hPa 0,0 l/m 18,2 km/h (3 Bft) W-SW 244 0 min 0,000 mm 1,0 UV-I 123 W/m 12,1 C 9,7 C 35,4 km/h (5 Bft) 100,00 %
12.08.2016 14:28 14,6 C 85 % 1025,1 hPa 0,0 l/m 19,8 km/h (3 Bft) W-SW 245 0 min 0,000 mm 1,0 UV-I 132 W/m 12,1 C 9,3 C 30,6 km/h (5 Bft) 100,00 %
12.08.2016 14:30 14,6 C 85 % 1025,1 hPa 0,0 l/m 16,3 km/h (3 Bft) S-SW 213 0 min 0,000 mm 1,1 UV-I 136 W/m 12,1 C 10,3 C 25,7 km/h (4 Bft) 100,00 %
12.08.2016 14:32 14,6 C 85 % 1025,1 hPa 0,0 l/m 14,0 km/h (3 Bft) W-SW 242 0 min 0,000 mm 1,1 UV-I 138 W/m 12,1 C 11,1 C 22,5 km/h (4 Bft) 100,00 %
12.08.2016 14:34 14,6 C 85 % 1025,1 hPa 0,0 l/m 14,0 km/h (3 Bft) SW 220 0 min 0,000 mm 1,2 UV-I 143 W/m 12,1 C 11,1 C 20,9 km/h (4 Bft) 100,00 %
12.08.2016 14:36 14,6 C 85 % 1025,1 hPa 0,0 l/m 17,0 km/h (3 Bft) SW 234 0 min 0,000 mm 1,1 UV-I 134 W/m 12,1 C 10,1 C 25,7 km/h (4 Bft) 96,00 %
12.08.2016 14:38 14,6 C 85 % 1025,1 hPa 0,0 l/m 12,2 km/h (2 Bft) W-SW 240 0 min 0,000 mm 1,1 UV-I 130 W/m 12,1 C 11,7 C 24,1 km/h (4 Bft) 96,00 %
12.08.2016 14:40 14,6 C 85 % 1025,1 hPa 0,0 l/m 11,1 km/h (2 Bft) W-SW 251 0 min 0,000 mm 1,2 UV-I 149 W/m 12,1 C 12,2 C 20,9 km/h (4 Bft) 97,87 %
12.08.2016 14:42 14,7 C 85 % 1025,1 hPa 0,0 l/m 13,9 km/h (3 Bft) SW 224 0 min 0,000 mm 1,0 UV-I 131 W/m 12,2 C 11,2 C 22,5 km/h (4 Bft) 95,74 %
12.08.2016 14:44 14,6 C 85 % 1025,1 hPa 0,0 l/m 16,4 km/h (3 Bft) W-SW 242 0 min 0,000 mm 1,0 UV-I 131 W/m 12,1 C 10,3 C 24,1 km/h (4 Bft) 97,87 %
12.08.2016 14:46 14,6 C 85 % 1025,0 hPa 0,0 l/m 15,7 km/h (3 Bft) W-SW 238 0 min 0,000 mm 1,1 UV-I 144 W/m 12,1 C 10,5 C 24,1 km/h (4 Bft) 97,87 %
12.08.2016 14:48 14,6 C 85 % 1025,1 hPa 0,0 l/m 13,3 km/h (3 Bft) SW 214 0 min 0,000 mm 1,4 UV-I 178 W/m 12,1 C 11,3 C 22,5 km/h (4 Bft) 97,87 %
12.08.2016 14:50 14,6 C 85 % 1025,0 hPa 0,0 l/m 14,6 km/h (3 Bft) S-SW 200 0 min 0,000 mm 1,4 UV-I 176 W/m 12,1 C 10,8 C 25,7 km/h (4 Bft) 96,00 %
12.08.2016 14:52 14,6 C 84 % 1025,0 hPa 0,0 l/m 19,2 km/h (3 Bft) SW 229 0 min 0,000 mm 1,2 UV-I 152 W/m 11,9 C 9,4 C 25,7 km/h (4 Bft) 97,37 %
12.08.2016 14:54 14,7 C 85 % 1025,1 hPa 0,0 l/m 15,6 km/h (3 Bft) SW 234 0 min 0,000 mm 1,1 UV-I 143 W/m 12,2 C 10,6 C 29,0 km/h (5 Bft) 97,87 %
12.08.2016 14:56 14,7 C 85 % 1025,1 hPa 0,0 l/m 13,2 km/h (3 Bft) S-SW 211 0 min 0,000 mm 0,9 UV-I 123 W/m 12,2 C 11,5 C 24,1 km/h (4 Bft) 95,74 %
12.08.2016 14:58 14,7 C 85 % 1025,1 hPa 0,0 l/m 17,7 km/h (3 Bft) SW 234 0 min 0,000 mm 0,9 UV-I 118 W/m 12,2 C 10,0 C 29,0 km/h (5 Bft) 95,74 %
12.08.2016 15:00 14,7 C 85 % 1025,1 hPa 0,0 l/m 16,1 km/h (3 Bft) W-SW 257 0 min 0,000 mm 0,8 UV-I 105 W/m 12,2 C 10,5 C 29,0 km/h (5 Bft) 97,87 %
12.08.2016 15:02 14,7 C 85 % 1025,1 hPa 0,0 l/m 13,7 km/h (3 Bft) SW 219 0 min 0,102 mm 0,7 UV-I 94 W/m 12,2 C 11,3 C 22,5 km/h (4 Bft) 95,74 %
12.08.2016 15:04 14,7 C 85 % 1025,1 hPa 0,0 l/m 15,9 km/h (3 Bft) W-SW 256 0 min 0,000 mm 0,7 UV-I 86 W/m 12,2 C 10,5 C 25,7 km/h (4 Bft) 97,87 %
12.08.2016 15:06 14,6 C 85 % 1025,1 hPa 0,0 l/m 13,3 km/h (3 Bft) W-SW 244 0 min 0,000 mm 0,6 UV-I 86 W/m 12,1 C 11,3 C 24,1 km/h (4 Bft) 97,92 %
12.08.2016 15:08 14,6 C 85 % 1025,1 hPa 0,0 l/m 12,9 km/h (3 Bft) W-SW 240 0 min 0,000 mm 0,7 UV-I 91 W/m 12,1 C 11,5 C 25,7 km/h (4 Bft) 100,00 %
12.08.2016 15:10 14,6 C 85 % 1025,1 hPa 0,0 l/m 18,7 km/h (3 Bft) W-SW 244 0 min 0,000 mm 0,8 UV-I 98 W/m 12,1 C 9,6 C 29,0 km/h (5 Bft) 95,74 %
12.08.2016 15:12 14,6 C 85 % 1025,1 hPa 0,0 l/m 15,2 km/h (3 Bft) SW 233 0 min 0,000 mm 0,7 UV-I 93 W/m 12,1 C 10,6 C 27,4 km/h (4 Bft) 100,00 %
12.08.2016 15:14 14,6 C 86 % 1025,1 hPa 0,0 l/m 14,5 km/h (3 Bft) SW 226 0 min 0,000 mm 0,9 UV-I 112 W/m 12,3 C 10,9 C 20,9 km/h (4 Bft) 100,00 %
12.08.2016 15:16 14,6 C 85 % 1025,1 hPa 0,0 l/m 17,7 km/h (3 Bft) W-SW 256 0 min 0,000 mm 1,0 UV-I 129 W/m 12,1 C 9,9 C 27,4 km/h (4 Bft) 100,00 %
12.08.2016 15:18 14,6 C 85 % 1025,1 hPa 0,0 l/m 16,5 km/h (3 Bft) W-SW 238 0 min 0,000 mm 1,0 UV-I 127 W/m 12,1 C 10,2 C 25,7 km/h (4 Bft) 98,00 %
12.08.2016 15:20 14,6 C 86 % 1025,1 hPa 0,0 l/m 15,5 km/h (3 Bft) W-SW 253 0 min 0,000 mm 0,8 UV-I 109 W/m 12,3 C 10,5 C 22,5 km/h (4 Bft) 100,00 %
12.08.2016 15:22 14,6 C 86 % 1025,1 hPa 0,0 l/m 13,9 km/h (3 Bft) W-SW 242 0 min 0,000 mm 0,8 UV-I 107 W/m 12,3 C 11,1 C 20,9 km/h (4 Bft) 100,00 %
12.08.2016 15:24 14,7 C 86 % 1025,1 hPa 0,0 l/m 15,4 km/h (3 Bft) S-SW 211 0 min 0,000 mm 0,8 UV-I 106 W/m 12,4 C 10,7 C 24,1 km/h (4 Bft) 97,87 %
12.08.2016 15:26 14,7 C 86 % 1025,1 hPa 0,0 l/m 16,9 km/h (3 Bft) SW 225 0 min 0,000 mm 0,8 UV-I 113 W/m 12,4 C 10,2 C 24,1 km/h (4 Bft) 97,87 %
12.08.2016 15:28 14,7 C 85 % 1025,1 hPa 0,0 l/m 15,8 km/h (3 Bft) SW 235 0 min 0,000 mm 0,7 UV-I 103 W/m 12,2 C 10,6 C 22,5 km/h (4 Bft) 95,74 %
12.08.2016 15:30 14,6 C 85 % 1025,1 hPa 0,0 l/m 15,4 km/h (3 Bft) SW 215 0 min 0,000 mm 0,7 UV-I 101 W/m 12,1 C 10,6 C 22,5 km/h (4 Bft) 97,87 %
12.08.2016 15:32 14,6 C 85 % 1025,1 hPa 0,0 l/m 15,5 km/h (3 Bft) SW 229 0 min 0,000 mm 0,6 UV-I 89 W/m 12,1 C 10,5 C 22,5 km/h (4 Bft) 100,00 %
12.08.2016 15:34 14,7 C 85 % 1025,2 hPa 0,0 l/m 14,0 km/h (3 Bft) W-SW 254 0 min 0,000 mm 0,6 UV-I 86 W/m 12,2 C 11,2 C 20,9 km/h (4 Bft) 100,00 %
12.08.2016 15:36 14,7 C 86 % 1025,2 hPa 0,0 l/m 12,6 km/h (3 Bft) SW 231 0 min 0,000 mm 0,7 UV-I 96 W/m 12,4 C 11,7 C 19,3 km/h (3 Bft) 97,87 %
12.08.2016 15:38 14,7 C 86 % 1025,2 hPa 0,0 l/m 11,1 km/h (2 Bft) SW 215 0 min 0,000 mm 0,7 UV-I 93 W/m 12,4 C 12,3 C 17,7 km/h (3 Bft) 100,00 %
12.08.2016 15:40 14,7 C 86 % 1025,2 hPa 0,0 l/m 11,7 km/h (2 Bft) W-SW 253 0 min 0,000 mm 0,7 UV-I 98 W/m 12,4 C 12,0 C 16,1 km/h (3 Bft) 100,00 %
12.08.2016 15:42 14,7 C 85 % 1025,2 hPa 0,0 l/m 17,6 km/h (3 Bft) SW 219 0 min 0,000 mm 0,7 UV-I 102 W/m 12,2 C 10,0 C 27,4 km/h (4 Bft) 100,00 %
12.08.2016 15:44 14,7 C 86 % 1025,2 hPa 0,0 l/m 14,9 km/h (3 Bft) SW 233 0 min 0,000 mm 0,8 UV-I 115 W/m 12,4 C 10,9 C 24,1 km/h (4 Bft) 97,96 %
12.08.2016 15:46 14,7 C 86 % 1025,2 hPa 0,0 l/m 8,8 km/h (2 Bft) SW 236 0 min 0,000 mm 0,8 UV-I 112 W/m 12,4 C 13,4 C 14,5 km/h (3 Bft) 100,00 %
12.08.2016 15:48 14,7 C 86 % 1025,2 hPa 0,0 l/m 9,0 km/h (2 Bft) SW 221 0 min 0,000 mm 0,8 UV-I 110 W/m 12,4 C 13,3 C 12,9 km/h (3 Bft) 97,92 %
12.08.2016 15:50 14,7 C 87 % 1025,2 hPa 0,0 l/m 9,6 km/h (2 Bft) SW 228 0 min 0,000 mm 0,8 UV-I 113 W/m 12,6 C 13,0 C 12,9 km/h (3 Bft) 100,00 %
12.08.2016 15:52 14,8 C 86 % 1025,2 hPa 0,0 l/m 13,5 km/h (3 Bft) SW 235 0 min 0,000 mm 0,7 UV-I 106 W/m 12,5 C 11,5 C 19,3 km/h (3 Bft) 100,00 %
12.08.2016 15:54 14,8 C 86 % 1025,2 hPa 0,0 l/m 10,5 km/h (2 Bft) SW 236 0 min 0,000 mm 0,8 UV-I 118 W/m 12,5 C 12,7 C 14,5 km/h (3 Bft) 100,00 %
12.08.2016 15:56 14,8 C 86 % 1025,2 hPa 0,0 l/m 12,1 km/h (2 Bft) SW 216 0 min 0,000 mm 0,9 UV-I 128 W/m 12,5 C 12,0 C 20,9 km/h (4 Bft) 100,00 %
12.08.2016 15:58 14,8 C 86 % 1025,2 hPa 0,0 l/m 10,8 km/h (2 Bft) SW 229 0 min 0,000 mm 1,0 UV-I 140 W/m 12,5 C 12,5 C 19,3 km/h (3 Bft) 100,00 %
12.08.2016 16:00 14,8 C 86 % 1025,2 hPa 0,0 l/m 14,9 km/h (3 Bft) W-SW 241 0 min 0,076 mm 0,9 UV-I 135 W/m 12,5 C 11,0 C 22,5 km/h (4 Bft) 100,00 %
12.08.2016 16:02 14,9 C 86 % 1025,2 hPa 0,0 l/m 12,7 km/h (3 Bft) SW 236 0 min 0,000 mm 0,8 UV-I 124 W/m 12,6 C 11,9 C 20,9 km/h (4 Bft) 100,00 %
12.08.2016 16:04 14,9 C 86 % 1025,1 hPa 0,0 l/m 14,4 km/h (3 Bft) W-SW 246 0 min 0,000 mm 0,8 UV-I 129 W/m 12,6 C 11,3 C 24,1 km/h (4 Bft) 97,96 %
12.08.2016 16:06 14,9 C 86 % 1025,1 hPa 0,0 l/m 14,4 km/h (3 Bft) W-SW 238 0 min 0,000 mm 1,0 UV-I 153 W/m 12,6 C 11,3 C 24,1 km/h (4 Bft) 100,00 %
12.08.2016 16:08 14,9 C 86 % 1025,2 hPa 0,0 l/m 13,8 km/h (3 Bft) W-SW 248 0 min 0,000 mm 1,1 UV-I 163 W/m 12,6 C 11,5 C 24,1 km/h (4 Bft) 98,00 %
12.08.2016 16:10 15,0 C 86 % 1025,2 hPa 0,0 l/m 17,2 km/h (3 Bft) W-SW 244 0 min 0,000 mm 0,9 UV-I 142 W/m 12,7 C 10,5 C 25,7 km/h (4 Bft) 95,74 %
12.08.2016 16:12 15,0 C 85 % 1025,2 hPa 0,0 l/m 17,4 km/h (3 Bft) W 265 0 min 0,000 mm 0,8 UV-I 125 W/m 12,5 C 10,5 C 25,7 km/h (4 Bft) 100,00 %
12.08.2016 16:14 15,0 C 85 % 1025,2 hPa 0,0 l/m 14,1 km/h (3 Bft) W-SW 250 0 min 0,000 mm 0,7 UV-I 113 W/m 12,5 C 11,5 C 24,1 km/h (4 Bft) 100,00 %
12.08.2016 16:16 15,0 C 86 % 1025,1 hPa 0,0 l/m 9,7 km/h (2 Bft) W 263 0 min 0,000 mm 0,6 UV-I 95 W/m 12,7 C 13,3 C 16,1 km/h (3 Bft) 100,00 %
12.08.2016 16:18 15,0 C 86 % 1025,2 hPa 0,0 l/m 9,6 km/h (2 Bft) S-SW 207 0 min 0,000 mm 0,6 UV-I 87 W/m 12,7 C 13,3 C 17,7 km/h (3 Bft) 100,00 %
12.08.2016 16:20 15,0 C 85 % 1025,2 hPa 0,0 l/m 11,8 km/h (2 Bft) SW 226 0 min 0,000 mm 0,6 UV-I 83 W/m 12,5 C 12,4 C 20,9 km/h (4 Bft) 98,00 %
12.08.2016 16:22 14,9 C 86 % 1025,2 hPa 0,0 l/m 12,9 km/h (3 Bft) SW 235 0 min 0,000 mm 0,5 UV-I 77 W/m 12,6 C 11,8 C 19,3 km/h (3 Bft) 97,87 %
12.08.2016 16:24 14,9 C 86 % 1025,1 hPa 0,0 l/m 15,7 km/h (3 Bft) SW 230 0 min 0,000 mm 0,5 UV-I 80 W/m 12,6 C 10,8 C 22,5 km/h (4 Bft) 97,87 %
12.08.2016 16:26 14,9 C 86 % 1025,2 hPa 0,0 l/m 10,5 km/h (2 Bft) S-SW 211 0 min 0,000 mm 0,5 UV-I 81 W/m 12,6 C 12,8 C 14,5 km/h (3 Bft) 97,92 %
12.08.2016 16:28 14,9 C 86 % 1025,2 hPa 0,0 l/m 15,8 km/h (3 Bft) W-SW 254 0 min 0,000 mm 0,5 UV-I 79 W/m 12,6 C 10,8 C 24,1 km/h (4 Bft) 100,00 %
12.08.2016 16:30 14,9 C 86 % 1025,2 hPa 0,0 l/m 14,8 km/h (3 Bft) W 262 0 min 0,000 mm 0,5 UV-I 81 W/m 12,6 C 11,1 C 22,5 km/h (4 Bft) 97,87 %
12.08.2016 16:32 14,9 C 86 % 1025,2 hPa 0,0 l/m 15,5 km/h (3 Bft) SW 225 0 min 0,000 mm 0,4 UV-I 74 W/m 12,6 C 10,9 C 22,5 km/h (4 Bft) 97,87 %
12.08.2016 16:34 14,9 C 86 % 1025,2 hPa 0,0 l/m 17,6 km/h (3 Bft) W-SW 256 0 min 0,000 mm 0,2 UV-I 71 W/m 12,6 C 10,3 C 29,0 km/h (5 Bft) 95,74 %
12.08.2016 16:36 14,9 C 86 % 1025,2 hPa 0,0 l/m 14,8 km/h (3 Bft) W 274 0 min 0,000 mm 0,2 UV-I 74 W/m 12,6 C 11,1 C 20,9 km/h (4 Bft) 96,00 %
12.08.2016 16:38 14,9 C 86 % 1025,2 hPa 0,0 l/m 14,0 km/h (3 Bft) W 265 0 min 0,000 mm 0,2 UV-I 69 W/m 12,6 C 11,4 C 22,5 km/h (4 Bft) 93,62 %
12.08.2016 16:40 14,9 C 86 % 1025,2 hPa 0,0 l/m 11,8 km/h (2 Bft) W-SW 246 0 min 0,000 mm 0,0 UV-I 61 W/m 12,6 C 12,2 C 20,9 km/h (4 Bft) 95,74 %
12.08.2016 16:42 14,9 C 86 % 1025,2 hPa 0,0 l/m 11,9 km/h (2 Bft) W-SW 253 0 min 0,000 mm 0,0 UV-I 56 W/m 12,6 C 12,2 C 17,7 km/h (3 Bft) 95,74 %
12.08.2016 16:44 14,9 C 86 % 1025,2 hPa 0,0 l/m 14,6 km/h (3 Bft) SW 216 0 min 0,000 mm 0,0 UV-I 50 W/m 12,6 C 11,2 C 20,9 km/h (4 Bft) 97,87 %
12.08.2016 16:46 14,8 C 86 % 1025,3 hPa 0,0 l/m 11,3 km/h (2 Bft) W-SW 244 0 min 0,000 mm 0,0 UV-I 51 W/m 12,5 C 12,3 C 17,7 km/h (3 Bft) 97,87 %
12.08.2016 16:48 14,8 C 87 % 1025,2 hPa 0,0 l/m 15,4 km/h (3 Bft) W 262 0 min 0,000 mm 0,0 UV-I 43 W/m 12,7 C 10,8 C 30,6 km/h (5 Bft) 97,87 %
12.08.2016 16:50 14,8 C 87 % 1025,3 hPa 0,0 l/m 13,2 km/h (3 Bft) W 267 0 min 0,000 mm 0,0 UV-I 44 W/m 12,7 C 11,6 C 20,9 km/h (4 Bft) 97,87 %
12.08.2016 16:52 14,7 C 87 % 1025,4 hPa 0,0 l/m 15,2 km/h (3 Bft) SW 236 0 min 0,000 mm 0,0 UV-I 45 W/m 12,6 C 10,8 C 19,3 km/h (3 Bft) 97,87 %
12.08.2016 16:54 14,7 C 87 % 1025,4 hPa 0,0 l/m 12,6 km/h (3 Bft) SW 235 0 min 0,000 mm 0,0 UV-I 54 W/m 12,6 C 11,7 C 20,9 km/h (4 Bft) 97,14 %
12.08.2016 16:56 14,7 C 88 % 1025,4 hPa 0,0 l/m 12,5 km/h (3 Bft) W-SW 250 0 min 0,000 mm 0,0 UV-I 51 W/m 12,7 C 11,7 C 19,3 km/h (3 Bft) 97,96 %
12.08.2016 16:58 14,6 C 88 % 1025,4 hPa 0,0 l/m 15,2 km/h (3 Bft) SW 221 0 min 0,000 mm 0,0 UV-I 50 W/m 12,6 C 10,6 C 22,5 km/h (4 Bft) 93,62 %
12.08.2016 17:00 14,6 C 88 % 1025,4 hPa 0,0 l/m 13,3 km/h (3 Bft) W-SW 251 0 min 0,000 mm 0,0 UV-I 43 W/m 12,6 C 11,3 C 24,1 km/h (4 Bft) 95,74 %
12.08.2016 17:02 14,6 C 88 % 1025,4 hPa 0,0 l/m 12,8 km/h (3 Bft) W-SW 256 0 min 0,076 mm 0,0 UV-I 36 W/m 12,6 C 11,5 C 19,3 km/h (3 Bft) 96,15 %
12.08.2016 17:04 14,6 C 89 % 1025,4 hPa 0,0 l/m 8,6 km/h (2 Bft) SW 228 0 min 0,000 mm 0,0 UV-I 37 W/m 12,8 C 13,4 C 14,5 km/h (3 Bft) 96,00 %
12.08.2016 17:06 14,5 C 89 % 1025,4 hPa 0,0 l/m 12,1 km/h (2 Bft) W-SW 240 0 min 0,000 mm 0,0 UV-I 39 W/m 12,7 C 11,7 C 19,3 km/h (3 Bft) 97,87 %
12.08.2016 17:08 14,5 C 89 % 1025,4 hPa 0,0 l/m 10,4 km/h (2 Bft) W-SW 248 0 min 0,000 mm 0,0 UV-I 38 W/m 12,7 C 12,4 C 20,9 km/h (4 Bft) 100,00 %
12.08.2016 17:10 14,4 C 89 % 1025,4 hPa 0,0 l/m 9,6 km/h (2 Bft) SW 234 0 min 0,000 mm 0,0 UV-I 37 W/m 12,6 C 12,6 C 16,1 km/h (3 Bft) 100,00 %
12.08.2016 17:12 14,4 C 89 % 1025,4 hPa 0,0 l/m 12,6 km/h (3 Bft) S-SW 209 0 min 0,000 mm 0,0 UV-I 42 W/m 12,6 C 11,3 C 24,1 km/h (4 Bft) 100,00 %
12.08.2016 17:14 14,4 C 89 % 1025,4 hPa 0,0 l/m 9,4 km/h (2 Bft) W-SW 241 0 min 0,000 mm 0,0 UV-I 44 W/m 12,6 C 12,7 C 16,1 km/h (3 Bft) 100,00 %
12.08.2016 17:16 14,4 C 89 % 1025,4 hPa 0,0 l/m 8,8 km/h (2 Bft) W-SW 249 0 min 0,000 mm 0,0 UV-I 40 W/m 12,6 C 13,0 C 14,5 km/h (3 Bft) 97,56 %
12.08.2016 17:18 14,4 C 89 % 1025,4 hPa 0,0 l/m 12,4 km/h (3 Bft) W-SW 254 0 min 0,000 mm 0,0 UV-I 39 W/m 12,6 C 11,4 C 16,1 km/h (3 Bft) 100,00 %
12.08.2016 17:20 14,4 C 89 % 1025,3 hPa 0,0 l/m 7,8 km/h (2 Bft) W-SW 258 0 min 0,000 mm 0,0 UV-I 38 W/m 12,6 C 13,6 C 11,3 km/h (2 Bft) 97,87 %
12.08.2016 17:22 14,4 C 89 % 1025,3 hPa 0,0 l/m 9,0 km/h (2 Bft) W-SW 238 0 min 0,000 mm 0,0 UV-I 36 W/m 12,6 C 12,9 C 14,5 km/h (3 Bft) 97,92 %
12.08.2016 17:24 14,4 C 89 % 1025,3 hPa 0,0 l/m 8,4 km/h (2 Bft) SW 233 0 min 0,000 mm 0,0 UV-I 33 W/m 12,6 C 13,3 C 12,9 km/h (3 Bft) 97,87 %
12.08.2016 17:26 14,4 C 89 % 1025,4 hPa 0,0 l/m 11,5 km/h (2 Bft) W 264 0 min 0,000 mm 0,0 UV-I 35 W/m 12,6 C 11,8 C 19,3 km/h (3 Bft) 97,87 %
12.08.2016 17:28 14,5 C 89 % 1025,4 hPa 0,0 l/m 11,1 km/h (2 Bft) S 180 0 min 0,000 mm 0,0 UV-I 36 W/m 12,7 C 12,1 C 20,9 km/h (4 Bft) 100,00 %
12.08.2016 17:30 14,5 C 89 % 1025,4 hPa 0,0 l/m 10,0 km/h (2 Bft) W 259 0 min 0,000 mm 0,0 UV-I 36 W/m 12,7 C 12,6 C 16,1 km/h (3 Bft) 97,87 %
12.08.2016 17:32 14,5 C 89 % 1025,4 hPa 0,0 l/m 13,5 km/h (3 Bft) SW 236 0 min 0,000 mm 0,0 UV-I 35 W/m 12,7 C 11,1 C 22,5 km/h (4 Bft) 97,92 %
12.08.2016 17:34 14,5 C 89 % 1025,4 hPa 0,0 l/m 11,4 km/h (2 Bft) W-SW 256 0 min 0,000 mm 0,0 UV-I 38 W/m 12,7 C 11,9 C 17,7 km/h (3 Bft) 100,00 %
12.08.2016 17:36 14,6 C 89 % 1025,3 hPa 0,0 l/m 10,4 km/h (2 Bft) W-SW 248 0 min 0,000 mm 0,0 UV-I 40 W/m 12,8 C 12,5 C 19,3 km/h (3 Bft) 98,00 %
12.08.2016 17:38 14,6 C 88 % 1025,4 hPa 0,0 l/m 13,1 km/h (3 Bft) W-SW 242 0 min 0,000 mm 0,0 UV-I 38 W/m 12,6 C 11,4 C 19,3 km/h (3 Bft) 100,00 %
12.08.2016 17:40 14,6 C 88 % 1025,3 hPa 0,0 l/m 16,7 km/h (3 Bft) S-SW 207 0 min 0,000 mm 0,0 UV-I 38 W/m 12,6 C 10,2 C 22,5 km/h (4 Bft) 100,00 %
12.08.2016 17:42 14,6 C 88 % 1025,4 hPa 0,0 l/m 15,9 km/h (3 Bft) W-SW 258 0 min 0,000 mm 0,0 UV-I 39 W/m 12,6 C 10,4 C 22,5 km/h (4 Bft) 100,00 %
12.08.2016 17:44 14,7 C 88 % 1025,4 hPa 0,0 l/m 13,0 km/h (3 Bft) SW 221 0 min 0,000 mm 0,0 UV-I 42 W/m 12,7 C 11,5 C 19,3 km/h (3 Bft) 95,74 %
12.08.2016 17:46 14,7 C 88 % 1025,4 hPa 0,0 l/m 11,8 km/h (2 Bft) W-SW 250 0 min 0,000 mm 0,0 UV-I 41 W/m 12,7 C 12,0 C 19,3 km/h (3 Bft) 100,00 %
12.08.2016 17:48 14,7 C 88 % 1025,4 hPa 0,0 l/m 12,6 km/h (3 Bft) W-SW 240 0 min 0,000 mm 0,0 UV-I 39 W/m 12,7 C 11,7 C 22,5 km/h (4 Bft) 100,00 %
12.08.2016 17:50 14,7 C 88 % 1025,4 hPa 0,0 l/m 13,1 km/h (3 Bft) W 275 0 min 0,000 mm 0,0 UV-I 38 W/m 12,7 C 11,5 C 20,9 km/h (4 Bft) 100,00 %
12.08.2016 17:52 14,7 C 88 % 1025,4 hPa 0,0 l/m 12,9 km/h (3 Bft) SW 222 0 min 0,000 mm 0,0 UV-I 33 W/m 12,7 C 11,6 C 20,9 km/h (4 Bft) 100,00 %
12.08.2016 17:54 14,7 C 89 % 1025,4 hPa 0,0 l/m 10,8 km/h (2 Bft) W-SW 242 0 min 0,000 mm 0,0 UV-I 30 W/m 12,9 C 12,4 C 19,3 km/h (3 Bft) 97,87 %
12.08.2016 17:56 14,6 C 88 % 1025,4 hPa 0,0 l/m 15,1 km/h (3 Bft) SW 232 0 min 0,000 mm 0,0 UV-I 30 W/m 12,6 C 10,7 C 22,5 km/h (4 Bft) 100,00 %
12.08.2016 17:58 14,6 C 88 % 1025,4 hPa 0,0 l/m 11,0 km/h (2 Bft) W-SW 245 0 min 0,000 mm 0,0 UV-I 30 W/m 12,6 C 12,2 C 17,7 km/h (3 Bft) 100,00 %
12.08.2016 18:00 14,6 C 88 % 1025,4 hPa 0,0 l/m 12,6 km/h (3 Bft) W-SW 246 0 min 0,000 mm 0,0 UV-I 30 W/m 12,6 C 11,6 C 19,3 km/h (3 Bft) 97,87 %
12.08.2016 18:02 14,6 C 88 % 1025,4 hPa 0,0 l/m 14,4 km/h (3 Bft) SW 221 0 min 0,026 mm 0,0 UV-I 29 W/m 12,6 C 10,9 C 20,9 km/h (4 Bft) 96,00 %
12.08.2016 18:04 14,6 C 88 % 1025,4 hPa 0,0 l/m 12,5 km/h (3 Bft) SW 232 0 min 0,000 mm 0,0 UV-I 25 W/m 12,6 C 11,6 C 16,1 km/h (3 Bft) 100,00 %
12.08.2016 18:06 14,6 C 88 % 1025,5 hPa 0,0 l/m 11,6 km/h (2 Bft) W-SW 251 0 min 0,000 mm 0,0 UV-I 26 W/m 12,6 C 12,0 C 19,3 km/h (3 Bft) 100,00 %
12.08.2016 18:08 14,6 C 88 % 1025,4 hPa 0,0 l/m 14,1 km/h (3 Bft) W-SW 252 0 min 0,000 mm 0,0 UV-I 26 W/m 12,6 C 11,0 C 20,9 km/h (4 Bft) 100,00 %
12.08.2016 18:10 14,6 C 88 % 1025,4 hPa 0,0 l/m 11,6 km/h (2 Bft) SW 219 0 min 0,000 mm 0,0 UV-I 26 W/m 12,6 C 12,0 C 19,3 km/h (3 Bft) 100,00 %
12.08.2016 18:12 14,6 C 88 % 1025,4 hPa 0,0 l/m 11,2 km/h (2 Bft) SW 222 0 min 0,000 mm 0,0 UV-I 27 W/m 12,6 C 12,1 C 16,1 km/h (3 Bft) 100,00 %
12.08.2016 18:14 14,6 C 88 % 1025,4 hPa 0,0 l/m 10,9 km/h (2 Bft) S-SW 199 0 min 0,000 mm 0,0 UV-I 31 W/m 12,6 C 12,3 C 19,3 km/h (3 Bft) 97,87 %
12.08.2016 18:16 14,6 C 88 % 1025,4 hPa 0,0 l/m 13,4 km/h (3 Bft) SW 225 0 min 0,000 mm 0,0 UV-I 35 W/m 12,6 C 11,3 C 19,3 km/h (3 Bft) 100,00 %
12.08.2016 18:18 14,6 C 88 % 1025,4 hPa 0,0 l/m 10,6 km/h (2 Bft) SW 221 0 min 0,000 mm 0,0 UV-I 32 W/m 12,6 C 12,4 C 17,7 km/h (3 Bft) 100,00 %
12.08.2016 18:20 14,7 C 88 % 1025,4 hPa 0,0 l/m 12,7 km/h (3 Bft) SW 224 0 min 0,000 mm 0,0 UV-I 35 W/m 12,7 C 11,7 C 17,7 km/h (3 Bft) 98,00 %
12.08.2016 18:22 14,7 C 88 % 1025,3 hPa 0,0 l/m 10,7 km/h (2 Bft) SW 232 0 min 0,000 mm 0,0 UV-I 38 W/m 12,7 C 12,5 C 16,1 km/h (3 Bft) 100,00 %
12.08.2016 18:24 14,7 C 88 % 1025,3 hPa 0,0 l/m 10,3 km/h (2 Bft) W-SW 246 0 min 0,000 mm 0,0 UV-I 40 W/m 12,7 C 12,6 C 17,7 km/h (3 Bft) 97,87 %
12.08.2016 18:26 14,7 C 88 % 1025,4 hPa 0,0 l/m 10,5 km/h (2 Bft) SW 236 0 min 0,000 mm 0,0 UV-I 46 W/m 12,7 C 12,6 C 20,9 km/h (4 Bft) 100,00 %
12.08.2016 18:28 14,7 C 88 % 1025,4 hPa 0,0 l/m 13,9 km/h (3 Bft) SW 228 0 min 0,000 mm 0,0 UV-I 54 W/m 12,7 C 11,2 C 19,3 km/h (3 Bft) 100,00 %
12.08.2016 18:30 14,8 C 88 % 1025,4 hPa 0,0 l/m 10,8 km/h (2 Bft) SW 223 0 min 0,000 mm 0,0 UV-I 52 W/m 12,8 C 12,5 C 16,1 km/h (3 Bft) 97,87 %
12.08.2016 18:32 14,8 C 87 % 1025,4 hPa 0,0 l/m 13,4 km/h (3 Bft) W-SW 237 0 min 0,000 mm 0,0 UV-I 48 W/m 12,7 C 11,5 C 19,3 km/h (3 Bft) 97,87 %
12.08.2016 18:34 14,8 C 88 % 1025,4 hPa 0,0 l/m 11,7 km/h (2 Bft) W 259 0 min 0,000 mm 0,0 UV-I 46 W/m 12,8 C 12,2 C 17,7 km/h (3 Bft) 95,74 %
12.08.2016 18:36 14,8 C 88 % 1025,4 hPa 0,0 l/m 12,6 km/h (3 Bft) S-SW 203 0 min 0,000 mm 0,0 UV-I 42 W/m 12,8 C 11,8 C 20,9 km/h (4 Bft) 95,74 %
12.08.2016 18:38 14,8 C 87 % 1025,4 hPa 0,0 l/m 13,4 km/h (3 Bft) SW 229 0 min 0,000 mm 0,0 UV-I 42 W/m 12,7 C 11,5 C 19,3 km/h (3 Bft) 95,74 %
12.08.2016 18:40 14,8 C 87 % 1025,4 hPa 0,0 l/m 13,5 km/h (3 Bft) W-SW 244 0 min 0,000 mm 0,0 UV-I 45 W/m 12,7 C 11,5 C 20,9 km/h (4 Bft) 97,83 %
12.08.2016 18:42 14,8 C 88 % 1025,4 hPa 0,0 l/m 11,4 km/h (2 Bft) SW 223 0 min 0,000 mm 0,0 UV-I 42 W/m 12,8 C 12,3 C 17,7 km/h (3 Bft) 95,74 %
12.08.2016 18:44 14,8 C 87 % 1025,4 hPa 0,0 l/m 12,5 km/h (3 Bft) W-SW 238 0 min 0,000 mm 0,0 UV-I 43 W/m 12,7 C 11,8 C 20,9 km/h (4 Bft) 93,62 %
12.08.2016 18:46 14,9 C 88 % 1025,4 hPa 0,0 l/m 13,7 km/h (3 Bft) W-SW 257 0 min 0,000 mm 0,0 UV-I 43 W/m 12,9 C 11,5 C 19,3 km/h (3 Bft) 100,00 %
12.08.2016 18:48 14,8 C 87 % 1025,4 hPa 0,0 l/m 13,4 km/h (3 Bft) W 275 0 min 0,000 mm 0,0 UV-I 46 W/m 12,7 C 11,5 C 22,5 km/h (4 Bft) 95,74 %
12.08.2016 18:50 14,9 C 88 % 1025,5 hPa 0,0 l/m 11,8 km/h (2 Bft) SW 236 0 min 0,000 mm 0,0 UV-I 41 W/m 12,9 C 12,2 C 27,4 km/h (4 Bft) 97,87 %
12.08.2016 18:52 14,9 C 88 % 1025,4 hPa 0,0 l/m 14,5 km/h (3 Bft) SW 214 0 min 0,000 mm 0,0 UV-I 37 W/m 12,9 C 11,2 C 24,1 km/h (4 Bft) 95,74 %
12.08.2016 18:54 14,8 C 88 % 1025,5 hPa 0,0 l/m 12,8 km/h (3 Bft) W-SW 240 0 min 0,000 mm 0,0 UV-I 34 W/m 12,8 C 11,7 C 19,3 km/h (3 Bft) 95,74 %
12.08.2016 18:56 14,8 C 88 % 1025,5 hPa 0,0 l/m 11,4 km/h (2 Bft) S-SW 212 0 min 0,000 mm 0,0 UV-I 32 W/m 12,8 C 12,3 C 16,1 km/h (3 Bft) 97,92 %
12.08.2016 18:58 14,8 C 88 % 1025,4 hPa 0,0 l/m 14,6 km/h (3 Bft) SW 235 0 min 0,000 mm 0,0 UV-I 27 W/m 12,8 C 11,1 C 20,9 km/h (4 Bft) 95,74 %
12.08.2016 19:00 14,8 C 88 % 1025,4 hPa 0,0 l/m 11,9 km/h (2 Bft) SW 230 0 min 0,000 mm 0,0 UV-I 26 W/m 12,8 C 12,1 C 22,5 km/h (4 Bft) 97,87 %
12.08.2016 19:02 14,8 C 88 % 1025,4 hPa 0,0 l/m 13,3 km/h (3 Bft) W 259 0 min 0,050 mm 0,0 UV-I 25 W/m 12,8 C 11,5 C 24,1 km/h (4 Bft) 93,62 %
12.08.2016 19:04 14,8 C 88 % 1025,4 hPa 0,0 l/m 15,7 km/h (3 Bft) S-SW 212 0 min 0,000 mm 0,0 UV-I 25 W/m 12,8 C 10,7 C 20,9 km/h (4 Bft) 95,74 %
12.08.2016 19:06 14,7 C 88 % 1025,5 hPa 0,0 l/m 12,8 km/h (3 Bft) W 269 0 min 0,000 mm 0,0 UV-I 24 W/m 12,7 C 11,6 C 20,9 km/h (4 Bft) 100,00 %
12.08.2016 19:08 14,7 C 88 % 1025,5 hPa 0,0 l/m 11,5 km/h (2 Bft) SW 217 0 min 0,000 mm 0,0 UV-I 22 W/m 12,7 C 12,1 C 17,7 km/h (3 Bft) 97,87 %
12.08.2016 19:10 14,7 C 88 % 1025,5 hPa 0,0 l/m 11,6 km/h (2 Bft) SW 223 0 min 0,000 mm 0,0 UV-I 20 W/m 12,7 C 12,1 C 17,7 km/h (3 Bft) 95,74 %
12.08.2016 19:12 14,7 C 89 % 1025,5 hPa 0,0 l/m 12,4 km/h (3 Bft) W-SW 237 0 min 0,000 mm 0,0 UV-I 19 W/m 12,9 C 11,8 C 17,7 km/h (3 Bft) 97,87 %
12.08.2016 19:14 14,7 C 89 % 1025,5 hPa 0,0 l/m 7,5 km/h (2 Bft) W-SW 238 0 min 0,000 mm 0,0 UV-I 19 W/m 12,9 C 14,1 C 11,3 km/h (2 Bft) 100,00 %
12.08.2016 19:16 14,7 C 89 % 1025,5 hPa 0,0 l/m 11,1 km/h (2 Bft) SW 236 0 min 0,000 mm 0,0 UV-I 18 W/m 12,9 C 12,3 C 16,1 km/h (3 Bft) 100,00 %
12.08.2016 19:18 14,7 C 89 % 1025,5 hPa 0,0 l/m 9,8 km/h (2 Bft) W-SW 243 0 min 0,000 mm 0,0 UV-I 18 W/m 12,9 C 12,9 C 14,5 km/h (3 Bft) 100,00 %
12.08.2016 19:20 14,7 C 89 % 1025,5 hPa 0,0 l/m 8,1 km/h (2 Bft) W-SW 240 0 min 0,000 mm 0,0 UV-I 18 W/m 12,9 C 13,7 C 14,5 km/h (3 Bft) 98,00 %
12.08.2016 19:22 14,7 C 89 % 1025,5 hPa 0,0 l/m 10,2 km/h (2 Bft) W-SW 246 0 min 0,000 mm 0,0 UV-I 15 W/m 12,9 C 12,7 C 19,3 km/h (3 Bft) 97,87 %
12.08.2016 19:24 14,6 C 89 % 1025,5 hPa 0,0 l/m 8,1 km/h (2 Bft) SW 226 0 min 0,000 mm 0,0 UV-I 14 W/m 12,8 C 13,6 C 16,1 km/h (3 Bft) 100,00 %
12.08.2016 19:26 14,6 C 90 % 1025,6 hPa 0,0 l/m 8,3 km/h (2 Bft) SW 236 0 min 0,000 mm 0,0 UV-I 14 W/m 13,0 C 13,5 C 12,9 km/h (3 Bft) 100,00 %
12.08.2016 19:28 14,6 C 90 % 1025,5 hPa 0,0 l/m 8,4 km/h (2 Bft) W-SW 250 0 min 0,000 mm 0,0 UV-I 14 W/m 13,0 C 13,5 C 12,9 km/h (3 Bft) 100,00 %
12.08.2016 19:30 14,6 C 89 % 1025,5 hPa 0,0 l/m 12,5 km/h (3 Bft) SW 222 0 min 0,000 mm 0,0 UV-I 14 W/m 12,8 C 11,6 C 19,3 km/h (3 Bft) 97,87 %
12.08.2016 19:32 14,6 C 90 % 1025,6 hPa 0,0 l/m 8,8 km/h (2 Bft) SW 226 0 min 0,000 mm 0,0 UV-I 12 W/m 13,0 C 13,3 C 14,5 km/h (3 Bft) 97,87 %
12.08.2016 19:34 14,6 C 90 % 1025,6 hPa 0,0 l/m 8,8 km/h (2 Bft) W-SW 258 0 min 0,000 mm 0,0 UV-I 11 W/m 13,0 C 13,3 C 12,9 km/h (3 Bft) 97,87 %
12.08.2016 19:36 14,6 C 90 % 1025,6 hPa 0,0 l/m 8,5 km/h (2 Bft) W-SW 243 0 min 0,000 mm 0,0 UV-I 8 W/m 13,0 C 13,4 C 14,5 km/h (3 Bft) 100,00 %
12.08.2016 19:38 14,6 C 90 % 1025,6 hPa 0,0 l/m 8,3 km/h (2 Bft) W-SW 238 0 min 0,000 mm 0,0 UV-I 7 W/m 13,0 C 13,5 C 14,5 km/h (3 Bft) 100,00 %
12.08.2016 19:40 14,6 C 90 % 1025,6 hPa 0,0 l/m 11,8 km/h (2 Bft) W-SW 242 0 min 0,000 mm 0,0 UV-I 8 W/m 13,0 C 11,9 C 16,1 km/h (3 Bft) 97,87 %
12.08.2016 19:42 14,6 C 90 % 1025,6 hPa 0,0 l/m 10,7 km/h (2 Bft) SW 226 0 min 0,000 mm 0,0 UV-I 8 W/m 13,0 C 12,4 C 16,1 km/h (3 Bft) 100,00 %
12.08.2016 19:44 14,6 C 90 % 1025,6 hPa 0,0 l/m 11,4 km/h (2 Bft) W-SW 242 0 min 0,000 mm 0,0 UV-I 7 W/m 13,0 C 12,1 C 17,7 km/h (3 Bft) 100,00 %
12.08.2016 19:46 14,6 C 90 % 1025,6 hPa 0,0 l/m 11,6 km/h (2 Bft) SW 221 0 min 0,000 mm 0,0 UV-I 9 W/m 13,0 C 12,0 C 17,7 km/h (3 Bft) 95,74 %
12.08.2016 19:48 14,5 C 91 % 1025,6 hPa 0,0 l/m 10,6 km/h (2 Bft) SW 223 0 min 0,000 mm 0,0 UV-I 8 W/m 13,0 C 12,3 C 17,7 km/h (3 Bft) 100,00 %
12.08.2016 19:50 14,5 C 91 % 1025,7 hPa 0,0 l/m 9,1 km/h (2 Bft) SW 220 0 min 0,000 mm 0,0 UV-I 7 W/m 13,0 C 13,0 C 14,5 km/h (3 Bft) 98,00 %
12.08.2016 19:52 14,4 C 92 % 1025,7 hPa 0,0 l/m 6,2 km/h (2 Bft) SW 214 0 min 0,000 mm 0,0 UV-I 5 W/m 13,1 C 14,4 C 11,3 km/h (2 Bft) 95,74 %
12.08.2016 19:54 14,3 C 92 % 1025,7 hPa 0,2 l/m 8,2 km/h (2 Bft) W-SW 240 0 min 0,000 mm 0,0 UV-I 5 W/m 13,0 C 13,3 C 14,5 km/h (3 Bft) 100,00 %
12.08.2016 19:56 14,3 C 92 % 1025,8 hPa 0,0 l/m 7,3 km/h (2 Bft) W-SW 257 0 min 0,000 mm 0,0 UV-I 5 W/m 13,0 C 13,8 C 11,3 km/h (2 Bft) 100,00 %
12.08.2016 19:58 14,2 C 93 % 1025,7 hPa 0,0 l/m 9,5 km/h (2 Bft) SW 233 0 min 0,000 mm 0,0 UV-I 5 W/m 13,1 C 12,5 C 14,5 km/h (3 Bft) 97,87 %
12.08.2016 20:00 14,2 C 93 % 1025,7 hPa 0,0 l/m 6,5 km/h (2 Bft) SW 224 0 min 0,000 mm 0,0 UV-I 5 W/m 13,1 C 14,2 C 9,7 km/h (2 Bft) 100,00 %
12.08.2016 20:02 14,2 C 93 % 1025,7 hPa 0,2 l/m 6,7 km/h (2 Bft) SW 229 0 min 0,026 mm 0,0 UV-I 5 W/m 13,1 C 14,0 C 11,3 km/h (2 Bft) 100,00 %
12.08.2016 20:04 14,1 C 94 % 1025,8 hPa 0,0 l/m 5,5 km/h (1 Bft) S-SW 207 0 min 0,000 mm 0,0 UV-I 5 W/m 13,1 C 14,1 C 9,7 km/h (2 Bft) 100,00 %
12.08.2016 20:06 14,1 C 94 % 1025,7 hPa 0,0 l/m 8,1 km/h (2 Bft) SW 235 0 min 0,000 mm 0,0 UV-I 2 W/m 13,1 C 13,1 C 12,9 km/h (3 Bft) 97,87 %
12.08.2016 20:08 14,1 C 94 % 1025,8 hPa 0,0 l/m 5,4 km/h (1 Bft) S-SW 199 0 min 0,000 mm 0,0 UV-I 0 W/m 13,1 C 14,1 C 9,7 km/h (2 Bft) 97,87 %
12.08.2016 20:10 14,1 C 94 % 1025,8 hPa 0,0 l/m 4,4 km/h (1 Bft) SW 226 0 min 0,000 mm 0,0 UV-I 0 W/m 13,1 C 14,1 C 6,4 km/h (2 Bft) 100,00 %
12.08.2016 20:12 14,1 C 94 % 1025,8 hPa 0,0 l/m 5,6 km/h (1 Bft) W-SW 241 0 min 0,000 mm 0,0 UV-I 0 W/m 13,1 C 14,1 C 9,7 km/h (2 Bft) 100,00 %
12.08.2016 20:14 14,1 C 94 % 1025,8 hPa 0,0 l/m 5,6 km/h (1 Bft) W-SW 239 0 min 0,000 mm 0,0 UV-I 0 W/m 13,1 C 14,1 C 8,0 km/h (2 Bft) 100,00 %
12.08.2016 20:16 14,1 C 94 % 1025,8 hPa 0,0 l/m 5,3 km/h (1 Bft) SW 231 0 min 0,000 mm 0,0 UV-I 0 W/m 13,1 C 14,1 C 8,0 km/h (2 Bft) 97,87 %
12.08.2016 20:18 14,1 C 94 % 1025,8 hPa 0,0 l/m 5,7 km/h (1 Bft) W-SW 250 0 min 0,000 mm 0,0 UV-I 0 W/m 13,1 C 14,1 C 8,0 km/h (2 Bft) 97,87 %
12.08.2016 20:20 14,1 C 94 % 1025,8 hPa 0,0 l/m 5,7 km/h (1 Bft) SW 227 0 min 0,000 mm 0,0 UV-I 0 W/m 13,1 C 14,1 C 11,3 km/h (2 Bft) 100,00 %
12.08.2016 20:22 14,1 C 94 % 1025,8 hPa 0,0 l/m 8,7 km/h (2 Bft) SW 235 0 min 0,000 mm 0,0 UV-I 0 W/m 13,1 C 12,8 C 12,9 km/h (3 Bft) 97,87 %
12.08.2016 20:24 14,1 C 94 % 1025,8 hPa 0,0 l/m 8,5 km/h (2 Bft) W-SW 238 0 min 0,000 mm 0,0 UV-I 0 W/m 13,1 C 12,9 C 12,9 km/h (3 Bft) 97,87 %
12.08.2016 20:26 14,1 C 94 % 1025,8 hPa 0,0 l/m 7,0 km/h (2 Bft) SW 225 0 min 0,000 mm 0,0 UV-I 0 W/m 13,1 C 13,7 C 11,3 km/h (2 Bft) 100,00 %
12.08.2016 20:28 14,2 C 94 % 1025,9 hPa 0,0 l/m 6,1 km/h (2 Bft) SW 216 0 min 0,000 mm 0,0 UV-I 0 W/m 13,2 C 14,2 C 9,7 km/h (2 Bft) 100,00 %
12.08.2016 20:30 14,1 C 94 % 1025,8 hPa 0,0 l/m 6,5 km/h (2 Bft) SW 235 0 min 0,000 mm 0,0 UV-I 0 W/m 13,1 C 14,1 C 11,3 km/h (2 Bft) 97,87 %
12.08.2016 20:32 14,2 C 94 % 1025,8 hPa 0,0 l/m 5,7 km/h (1 Bft) W-SW 240 0 min 0,000 mm 0,0 UV-I 0 W/m 13,2 C 14,2 C 9,7 km/h (2 Bft) 97,87 %
12.08.2016 20:34 14,2 C 94 % 1025,9 hPa 0,0 l/m 5,7 km/h (1 Bft) S-SW 209 0 min 0,000 mm 0,0 UV-I 0 W/m 13,2 C 14,2 C 11,3 km/h (2 Bft) 97,87 %
12.08.2016 20:36 14,2 C 94 % 1025,8 hPa 0,0 l/m 8,2 km/h (2 Bft) SW 223 0 min 0,000 mm 0,0 UV-I 0 W/m 13,2 C 13,2 C 12,9 km/h (3 Bft) 97,37 %
12.08.2016 20:38 14,2 C 94 % 1025,9 hPa 0,0 l/m 7,7 km/h (2 Bft) SW 227 0 min 0,000 mm 0,0 UV-I 0 W/m 13,2 C 13,4 C 14,5 km/h (3 Bft) 97,87 %
12.08.2016 20:40 14,2 C 94 % 1025,9 hPa 0,0 l/m 8,7 km/h (2 Bft) S 190 0 min 0,000 mm 0,0 UV-I 0 W/m 13,2 C 12,9 C 14,5 km/h (3 Bft) 95,83 %
12.08.2016 20:42 14,2 C 94 % 1025,9 hPa 0,0 l/m 9,5 km/h (2 Bft) S-SO 163 0 min 0,000 mm 0,0 UV-I 0 W/m 13,2 C 12,5 C 16,1 km/h (3 Bft) 95,74 %
12.08.2016 20:44 14,3 C 94 % 1025,9 hPa 0,0 l/m 9,9 km/h (2 Bft) SW 232 0 min 0,000 mm 0,0 UV-I 0 W/m 13,3 C 12,4 C 16,1 km/h (3 Bft) 95,74 %
12.08.2016 20:46 14,3 C 94 % 1025,9 hPa 0,0 l/m 7,4 km/h (2 Bft) W-SW 246 0 min 0,000 mm 0,0 UV-I 0 W/m 13,3 C 13,7 C 14,5 km/h (3 Bft) 90,00 %
12.08.2016 20:48 14,3 C 94 % 1025,9 hPa 0,0 l/m 8,7 km/h (2 Bft) W-SW 242 0 min 0,000 mm 0,0 UV-I 0 W/m 13,3 C 13,0 C 14,5 km/h (3 Bft) 95,92 %
12.08.2016 20:50 14,3 C 94 % 1026,0 hPa 0,0 l/m 11,1 km/h (2 Bft) SW 227 0 min 0,000 mm 0,0 UV-I 0 W/m 13,3 C 11,8 C 19,3 km/h (3 Bft) 97,87 %
12.08.2016 20:52 14,3 C 94 % 1025,9 hPa 0,2 l/m 10,5 km/h (2 Bft) S-SW 200 0 min 0,000 mm 0,0 UV-I 0 W/m 13,3 C 12,1 C 16,1 km/h (3 Bft) 95,83 %
12.08.2016 20:54 14,3 C 94 % 1025,9 hPa 0,0 l/m 12,4 km/h (3 Bft) SW 228 0 min 0,000 mm 0,0 UV-I 0 W/m 13,3 C 11,3 C 20,9 km/h (4 Bft) 97,87 %
12.08.2016 20:56 14,3 C 94 % 1026,0 hPa 0,0 l/m 12,0 km/h (2 Bft) SW 236 0 min 0,000 mm 0,0 UV-I 0 W/m 13,3 C 11,5 C 16,1 km/h (3 Bft) 95,74 %
12.08.2016 20:58 14,3 C 93 % 1025,9 hPa 0,0 l/m 11,2 km/h (2 Bft) W-SW 238 0 min 0,000 mm 0,0 UV-I 0 W/m 13,2 C 11,8 C 22,5 km/h (4 Bft) 97,50 %
12.08.2016 21:00 14,3 C 94 % 1026,0 hPa 0,0 l/m 11,3 km/h (2 Bft) S-SW 211 0 min 0,000 mm 0,0 UV-I 0 W/m 13,3 C 11,8 C 20,9 km/h (4 Bft) 97,87 %
12.08.2016 21:02 14,3 C 94 % 1026,0 hPa 0,0 l/m 10,7 km/h (2 Bft) SW 220 0 min 0,000 mm 0,0 UV-I 0 W/m 13,3 C 12,0 C 19,3 km/h (3 Bft) 97,87 %
12.08.2016 21:04 14,3 C 94 % 1026,0 hPa 0,0 l/m 13,0 km/h (3 Bft) SW 222 0 min 0,000 mm 0,0 UV-I 0 W/m 13,3 C 11,1 C 17,7 km/h (3 Bft) 92,45 %
12.08.2016 21:06 14,3 C 94 % 1026,1 hPa 0,0 l/m 8,4 km/h (2 Bft) SW 226 0 min 0,000 mm 0,0 UV-I 0 W/m 13,3 C 13,1 C 14,5 km/h (3 Bft) 97,87 %
12.08.2016 21:08 14,3 C 94 % 1026,1 hPa 0,0 l/m 8,0 km/h (2 Bft) SW 235 0 min 0,000 mm 0,0 UV-I 0 W/m 13,3 C 13,4 C 14,5 km/h (3 Bft) 97,87 %
12.08.2016 21:10 14,3 C 94 % 1026,1 hPa 0,0 l/m 7,7 km/h (2 Bft) W-SW 250 0 min 0,000 mm 0,0 UV-I 0 W/m 13,3 C 13,5 C 12,9 km/h (3 Bft) 97,87 %
12.08.2016 21:12 14,3 C 94 % 1026,1 hPa 0,0 l/m 9,4 km/h (2 Bft) SW 228 0 min 0,000 mm 0,0 UV-I 0 W/m 13,3 C 12,6 C 16,1 km/h (3 Bft) 100,00 %
12.08.2016 21:14 14,3 C 94 % 1026,1 hPa 0,0 l/m 8,6 km/h (2 Bft) W 269 0 min 0,000 mm 0,0 UV-I 0 W/m 13,3 C 13,0 C 14,5 km/h (3 Bft) 100,00 %
12.08.2016 21:16 14,3 C 94 % 1026,1 hPa 0,0 l/m 11,8 km/h (2 Bft) W-SW 252 0 min 0,000 mm 0,0 UV-I 0 W/m 13,3 C 11,5 C 17,7 km/h (3 Bft) 97,87 %
12.08.2016 21:18 14,3 C 94 % 1026,0 hPa 0,0 l/m 8,3 km/h (2 Bft) SW 227 0 min 0,000 mm 0,0 UV-I 0 W/m 13,3 C 13,2 C 14,5 km/h (3 Bft) 100,00 %
12.08.2016 21:20 14,3 C 94 % 1026,1 hPa 0,0 l/m 11,2 km/h (2 Bft) SW 222 0 min 0,000 mm 0,0 UV-I 0 W/m 13,3 C 11,8 C 16,1 km/h (3 Bft) 100,00 %
12.08.2016 21:22 14,3 C 94 % 1026,1 hPa 0,0 l/m 10,6 km/h (2 Bft) SW 226 0 min 0,000 mm 0,0 UV-I 0 W/m 13,3 C 12,1 C 20,9 km/h (4 Bft) 98,00 %
12.08.2016 21:24 14,3 C 94 % 1026,1 hPa 0,0 l/m 9,4 km/h (2 Bft) W-SW 257 0 min 0,000 mm 0,0 UV-I 0 W/m 13,3 C 12,6 C 14,5 km/h (3 Bft) 97,92 %
12.08.2016 21:26 14,3 C 94 % 1026,0 hPa 0,0 l/m 10,5 km/h (2 Bft) SW 219 0 min 0,000 mm 0,0 UV-I 0 W/m 13,3 C 12,1 C 17,7 km/h (3 Bft) 100,00 %
12.08.2016 21:28 14,3 C 94 % 1026,1 hPa 0,0 l/m 11,1 km/h (2 Bft) W 260 0 min 0,000 mm 0,0 UV-I 0 W/m 13,3 C 11,8 C 16,1 km/h (3 Bft) 97,87 %
12.08.2016 21:30 14,3 C 94 % 1026,0 hPa 0,0 l/m 15,0 km/h (3 Bft) W-SW 247 0 min 0,000 mm 0,0 UV-I 0 W/m 13,3 C 10,3 C 22,5 km/h (4 Bft) 93,62 %
12.08.2016 21:32 14,3 C 94 % 1026,1 hPa 0,0 l/m 10,8 km/h (2 Bft) S-SW 209 0 min 0,000 mm 0,0 UV-I 0 W/m 13,3 C 12,0 C 17,7 km/h (3 Bft) 97,87 %
12.08.2016 21:34 14,3 C 94 % 1026,1 hPa 0,0 l/m 11,1 km/h (2 Bft) SW 221 0 min 0,000 mm 0,0 UV-I 0 W/m 13,3 C 11,8 C 17,7 km/h (3 Bft) 96,00 %
12.08.2016 21:36 14,3 C 94 % 1026,0 hPa 0,0 l/m 11,6 km/h (2 Bft) W-SW 255 0 min 0,000 mm 0,0 UV-I 0 W/m 13,3 C 11,6 C 19,3 km/h (3 Bft) 100,00 %
12.08.2016 21:38 14,3 C 94 % 1026,0 hPa 0,0 l/m 9,3 km/h (2 Bft) SW 227 0 min 0,000 mm 0,0 UV-I 0 W/m 13,3 C 12,7 C 16,1 km/h (3 Bft) 97,87 %
12.08.2016 21:40 14,3 C 94 % 1026,1 hPa 0,0 l/m 10,0 km/h (2 Bft) SW 226 0 min 0,000 mm 0,0 UV-I 0 W/m 13,3 C 12,3 C 14,5 km/h (3 Bft) 97,87 %
12.08.2016 21:42 14,3 C 94 % 1026,1 hPa 0,0 l/m 8,5 km/h (2 Bft) SW 230 0 min 0,000 mm 0,0 UV-I 0 W/m 13,3 C 13,1 C 12,9 km/h (3 Bft) 100,00 %
12.08.2016 21:44 14,3 C 94 % 1026,0 hPa 0,0 l/m 10,2 km/h (2 Bft) SW 236 0 min 0,000 mm 0,0 UV-I 0 W/m 13,3 C 12,3 C 14,5 km/h (3 Bft) 97,87 %
12.08.2016 21:46 14,3 C 94 % 1026,1 hPa 0,0 l/m 8,7 km/h (2 Bft) W-SW 246 0 min 0,000 mm 0,0 UV-I 0 W/m 13,3 C 13,0 C 16,1 km/h (3 Bft) 95,74 %
12.08.2016 21:48 14,3 C 94 % 1026,1 hPa 0,0 l/m 11,3 km/h (2 Bft) SW 227 0 min 0,000 mm 0,0 UV-I 0 W/m 13,3 C 11,8 C 19,3 km/h (3 Bft) 100,00 %
12.08.2016 21:50 14,3 C 94 % 1026,1 hPa 0,0 l/m 7,9 km/h (2 Bft) SW 229 0 min 0,000 mm 0,0 UV-I 0 W/m 13,3 C 13,4 C 14,5 km/h (3 Bft) 97,87 %
12.08.2016 21:52 14,3 C 94 % 1026,1 hPa 0,0 l/m 11,1 km/h (2 Bft) SW 218 0 min 0,000 mm 0,0 UV-I 0 W/m 13,3 C 11,8 C 16,1 km/h (3 Bft) 97,87 %
12.08.2016 21:54 14,3 C 94 % 1026,1 hPa 0,0 l/m 11,1 km/h (2 Bft) W-SW 251 0 min 0,000 mm 0,0 UV-I 0 W/m 13,3 C 11,8 C 16,1 km/h (3 Bft) 100,00 %
12.08.2016 21:56 14,4 C 94 % 1026,1 hPa 0,0 l/m 10,6 km/h (2 Bft) SW 226 0 min 0,000 mm 0,0 UV-I 0 W/m 13,4 C 12,2 C 17,7 km/h (3 Bft) 95,74 %
12.08.2016 21:58 14,4 C 94 % 1026,1 hPa 0,0 l/m 11,1 km/h (2 Bft) SW 219 0 min 0,000 mm 0,0 UV-I 0 W/m 13,4 C 12,0 C 17,7 km/h (3 Bft) 100,00 %
12.08.2016 22:00 14,4 C 94 % 1026,1 hPa 0,0 l/m 11,3 km/h (2 Bft) SW 225 0 min 0,000 mm 0,0 UV-I 0 W/m 13,4 C 11,9 C 17,7 km/h (3 Bft) 98,00 %
12.08.2016 22:02 14,4 C 94 % 1026,0 hPa 0,0 l/m 12,1 km/h (2 Bft) SW 226 0 min 0,000 mm 0,0 UV-I 0 W/m 13,4 C 11,5 C 19,3 km/h (3 Bft) 98,00 %
12.08.2016 22:04 14,4 C 94 % 1026,1 hPa 0,0 l/m 10,1 km/h (2 Bft) SW 218 0 min 0,000 mm 0,0 UV-I 0 W/m 13,4 C 12,4 C 19,3 km/h (3 Bft) 100,00 %
12.08.2016 22:06 14,4 C 94 % 1026,1 hPa 0,0 l/m 10,9 km/h (2 Bft) W-SW 252 0 min 0,000 mm 0,0 UV-I 0 W/m 13,4 C 12,0 C 14,5 km/h (3 Bft) 100,00 %
12.08.2016 22:08 14,4 C 94 % 1026,1 hPa 0,0 l/m 11,4 km/h (2 Bft) SW 227 0 min 0,000 mm 0,0 UV-I 0 W/m 13,4 C 11,8 C 17,7 km/h (3 Bft) 100,00 %
12.08.2016 22:10 14,5 C 94 % 1026,1 hPa 0,0 l/m 12,4 km/h (3 Bft) SW 226 0 min 0,000 mm 0,0 UV-I 0 W/m 13,5 C 11,5 C 19,3 km/h (3 Bft) 97,92 %
12.08.2016 22:12 14,5 C 94 % 1026,1 hPa 0,0 l/m 8,4 km/h (2 Bft) S-SW 200 0 min 0,000 mm 0,0 UV-I 0 W/m 13,5 C 13,4 C 12,9 km/h (3 Bft) 100,00 %
12.08.2016 22:14 14,5 C 94 % 1026,1 hPa 0,0 l/m 11,8 km/h (2 Bft) SW 234 0 min 0,000 mm 0,0 UV-I 0 W/m 13,5 C 11,8 C 17,7 km/h (3 Bft) 100,00 %
12.08.2016 22:16 14,5 C 93 % 1026,1 hPa 0,0 l/m 11,1 km/h (2 Bft) SW 230 0 min 0,000 mm 0,0 UV-I 0 W/m 13,4 C 12,1 C 19,3 km/h (3 Bft) 97,14 %
12.08.2016 22:18 14,6 C 93 % 1026,1 hPa 0,0 l/m 13,1 km/h (3 Bft) W-SW 238 0 min 0,000 mm 0,0 UV-I 0 W/m 13,5 C 11,4 C 19,3 km/h (3 Bft) 97,87 %
12.08.2016 22:20 14,6 C 93 % 1026,1 hPa 0,0 l/m 13,3 km/h (3 Bft) SW 229 0 min 0,000 mm 0,0 UV-I 0 W/m 13,5 C 11,3 C 17,7 km/h (3 Bft) 100,00 %
12.08.2016 22:22 14,6 C 93 % 1026,0 hPa 0,0 l/m 10,1 km/h (2 Bft) SW 236 0 min 0,000 mm 0,0 UV-I 0 W/m 13,5 C 12,6 C 16,1 km/h (3 Bft) 97,92 %
12.08.2016 22:24 14,6 C 93 % 1026,0 hPa 0,0 l/m 8,6 km/h (2 Bft) SW 236 0 min 0,000 mm 0,0 UV-I 0 W/m 13,5 C 13,4 C 16,1 km/h (3 Bft) 100,00 %
12.08.2016 22:26 14,6 C 93 % 1026,1 hPa 0,0 l/m 11,7 km/h (2 Bft) W-SW 250 0 min 0,000 mm 0,0 UV-I 0 W/m 13,5 C 11,9 C 17,7 km/h (3 Bft) 95,74 %
12.08.2016 22:28 14,6 C 93 % 1026,1 hPa 0,0 l/m 11,3 km/h (2 Bft) S-SW 198 0 min 0,000 mm 0,0 UV-I 0 W/m 13,5 C 12,1 C 19,3 km/h (3 Bft) 100,00 %
12.08.2016 22:30 14,6 C 93 % 1026,1 hPa 0,0 l/m 8,7 km/h (2 Bft) SW 222 0 min 0,000 mm 0,0 UV-I 0 W/m 13,5 C 13,3 C 14,5 km/h (3 Bft) 97,87 %
12.08.2016 22:32 14,6 C 93 % 1026,1 hPa 0,0 l/m 10,6 km/h (2 Bft) SW 216 0 min 0,000 mm 0,0 UV-I 0 W/m 13,5 C 12,4 C 19,3 km/h (3 Bft) 97,87 %
12.08.2016 22:34 14,6 C 93 % 1026,1 hPa 0,0 l/m 8,9 km/h (2 Bft) W-SW 255 0 min 0,000 mm 0,0 UV-I 0 W/m 13,5 C 13,2 C 17,7 km/h (3 Bft) 93,62 %
12.08.2016 22:36 14,6 C 93 % 1026,1 hPa 0,0 l/m 10,2 km/h (2 Bft) SW 224 0 min 0,000 mm 0,0 UV-I 0 W/m 13,5 C 12,6 C 17,7 km/h (3 Bft) 97,87 %
12.08.2016 22:38 14,6 C 93 % 1026,1 hPa 0,0 l/m 12,9 km/h (3 Bft) SW 234 0 min 0,000 mm 0,0 UV-I 0 W/m 13,5 C 11,5 C 20,9 km/h (4 Bft) 97,87 %
12.08.2016 22:40 14,6 C 93 % 1026,1 hPa 0,0 l/m 14,9 km/h (3 Bft) W-SW 239 0 min 0,000 mm 0,0 UV-I 0 W/m 13,5 C 10,7 C 20,9 km/h (4 Bft) 95,74 %
12.08.2016 22:42 14,6 C 93 % 1026,1 hPa 0,0 l/m 14,6 km/h (3 Bft) S-SW 195 0 min 0,000 mm 0,0 UV-I 0 W/m 13,5 C 10,8 C 22,5 km/h (4 Bft) 95,74 %
12.08.2016 22:44 14,6 C 93 % 1026,0 hPa 0,0 l/m 13,4 km/h (3 Bft) S-SW 211 0 min 0,000 mm 0,0 UV-I 0 W/m 13,5 C 11,3 C 19,3 km/h (3 Bft) 97,87 %
12.08.2016 22:46 14,6 C 93 % 1026,1 hPa 0,0 l/m 11,4 km/h (2 Bft) SW 229 0 min 0,000 mm 0,0 UV-I 0 W/m 13,5 C 12,1 C 20,9 km/h (4 Bft) 97,92 %
12.08.2016 22:48 14,6 C 93 % 1026,1 hPa 0,0 l/m 13,1 km/h (3 Bft) S-SW 213 0 min 0,000 mm 0,0 UV-I 0 W/m 13,5 C 11,4 C 20,9 km/h (4 Bft) 95,74 %
12.08.2016 22:50 14,6 C 93 % 1026,0 hPa 0,0 l/m 11,3 km/h (2 Bft) S 188 0 min 0,000 mm 0,0 UV-I 0 W/m 13,5 C 12,1 C 16,1 km/h (3 Bft) 95,74 %
12.08.2016 22:52 14,6 C 93 % 1026,1 hPa 0,0 l/m 12,2 km/h (2 Bft) W-SW 248 0 min 0,000 mm 0,0 UV-I 0 W/m 13,5 C 11,7 C 22,5 km/h (4 Bft) 97,87 %
12.08.2016 22:54 14,6 C 93 % 1026,1 hPa 0,0 l/m 11,9 km/h (2 Bft) SW 227 0 min 0,000 mm 0,0 UV-I 0 W/m 13,5 C 11,9 C 20,9 km/h (4 Bft) 97,87 %
12.08.2016 22:56 14,6 C 93 % 1026,1 hPa 0,0 l/m 14,9 km/h (3 Bft) S-SW 204 0 min 0,000 mm 0,0 UV-I 0 W/m 13,5 C 10,7 C 22,5 km/h (4 Bft) 95,74 %
12.08.2016 22:58 14,6 C 93 % 1026,1 hPa 0,0 l/m 13,0 km/h (3 Bft) S-SW 213 0 min 0,000 mm 0,0 UV-I 0 W/m 13,5 C 11,4 C 19,3 km/h (3 Bft) 97,87 %
12.08.2016 23:00 14,6 C 94 % 1026,1 hPa 0,0 l/m 13,3 km/h (3 Bft) W-SW 243 0 min 0,000 mm 0,0 UV-I 0 W/m 13,6 C 11,3 C 20,9 km/h (4 Bft) 97,87 %
12.08.2016 23:02 14,6 C 94 % 1026,1 hPa 0,0 l/m 10,5 km/h (2 Bft) W-SW 248 0 min 0,000 mm 0,0 UV-I 0 W/m 13,6 C 12,4 C 16,1 km/h (3 Bft) 95,65 %
12.08.2016 23:04 14,6 C 94 % 1026,1 hPa 0,0 l/m 14,7 km/h (3 Bft) W-SW 245 0 min 0,000 mm 0,0 UV-I 0 W/m 13,6 C 10,8 C 22,5 km/h (4 Bft) 96,92 %
12.08.2016 23:06 14,6 C 94 % 1026,1 hPa 0,0 l/m 12,0 km/h (2 Bft) W-SW 238 0 min 0,000 mm 0,0 UV-I 0 W/m 13,6 C 11,8 C 17,7 km/h (3 Bft) 97,87 %
12.08.2016 23:08 14,6 C 94 % 1026,1 hPa 0,0 l/m 11,5 km/h (2 Bft) S-SW 210 0 min 0,000 mm 0,0 UV-I 0 W/m 13,6 C 12,0 C 17,7 km/h (3 Bft) 97,87 %
12.08.2016 23:10 14,6 C 94 % 1026,1 hPa 0,0 l/m 11,3 km/h (2 Bft) S-SW 193 0 min 0,000 mm 0,0 UV-I 0 W/m 13,6 C 12,1 C 24,1 km/h (4 Bft) 100,00 %
12.08.2016 23:12 14,6 C 94 % 1026,1 hPa 0,0 l/m 12,3 km/h (3 Bft) W-SW 241 0 min 0,000 mm 0,0 UV-I 0 W/m 13,6 C 11,7 C 17,7 km/h (3 Bft) 100,00 %
12.08.2016 23:14 14,6 C 94 % 1026,1 hPa 0,0 l/m 9,5 km/h (2 Bft) S 180 0 min 0,000 mm 0,0 UV-I 0 W/m 13,6 C 12,9 C 14,5 km/h (3 Bft) 98,00 %
12.08.2016 23:16 14,6 C 94 % 1026,1 hPa 0,0 l/m 12,4 km/h (3 Bft) SW 219 0 min 0,000 mm 0,0 UV-I 0 W/m 13,6 C 11,7 C 17,7 km/h (3 Bft) 100,00 %
12.08.2016 23:18 14,6 C 94 % 1026,0 hPa 0,0 l/m 11,4 km/h (2 Bft) W-SW 254 0 min 0,000 mm 0,0 UV-I 0 W/m 13,6 C 12,1 C 22,5 km/h (4 Bft) 100,00 %
12.08.2016 23:20 14,6 C 94 % 1026,1 hPa 0,0 l/m 11,4 km/h (2 Bft) SW 214 0 min 0,000 mm 0,0 UV-I 0 W/m 13,6 C 12,1 C 19,3 km/h (3 Bft) 100,00 %
12.08.2016 23:22 14,6 C 94 % 1026,1 hPa 0,0 l/m 10,5 km/h (2 Bft) SW 225 0 min 0,000 mm 0,0 UV-I 0 W/m 13,6 C 12,4 C 17,7 km/h (3 Bft) 100,00 %
12.08.2016 23:24 14,6 C 94 % 1026,1 hPa 0,0 l/m 8,8 km/h (2 Bft) S-SW 210 0 min 0,000 mm 0,0 UV-I 0 W/m 13,6 C 13,3 C 16,1 km/h (3 Bft) 100,00 %
12.08.2016 23:26 14,6 C 94 % 1026,0 hPa 0,0 l/m 11,1 km/h (2 Bft) S 186 0 min 0,000 mm 0,0 UV-I 0 W/m 13,6 C 12,2 C 20,9 km/h (4 Bft) 100,00 %
12.08.2016 23:28 14,6 C 94 % 1026,1 hPa 0,0 l/m 8,5 km/h (2 Bft) SW 220 0 min 0,000 mm 0,0 UV-I 0 W/m 13,6 C 13,4 C 16,1 km/h (3 Bft) 95,74 %
12.08.2016 23:30 14,6 C 94 % 1026,1 hPa 0,0 l/m 9,4 km/h (2 Bft) SW 233 0 min 0,000 mm 0,0 UV-I 0 W/m 13,6 C 13,0 C 17,7 km/h (3 Bft) 100,00 %
12.08.2016 23:32 14,6 C 94 % 1026,1 hPa 0,0 l/m 10,5 km/h (2 Bft) SW 236 0 min 0,000 mm 0,0 UV-I 0 W/m 13,6 C 12,4 C 16,1 km/h (3 Bft) 98,00 %
12.08.2016 23:34 14,6 C 95 % 1026,1 hPa 0,0 l/m 7,2 km/h (2 Bft) W-SW 240 0 min 0,000 mm 0,0 UV-I 0 W/m 13,8 C 14,1 C 11,3 km/h (2 Bft) 100,00 %
12.08.2016 23:36 14,6 C 95 % 1026,1 hPa 0,0 l/m 11,5 km/h (2 Bft) SW 221 0 min 0,000 mm 0,0 UV-I 0 W/m 13,8 C 12,0 C 16,1 km/h (3 Bft) 100,00 %
12.08.2016 23:38 14,6 C 95 % 1026,1 hPa 0,0 l/m 11,1 km/h (2 Bft) SW 219 0 min 0,000 mm 0,0 UV-I 0 W/m 13,8 C 12,2 C 16,1 km/h (3 Bft) 100,00 %
12.08.2016 23:40 14,6 C 95 % 1026,1 hPa 0,0 l/m 8,6 km/h (2 Bft) S-SW 213 0 min 0,000 mm 0,0 UV-I 0 W/m 13,8 C 13,4 C 12,9 km/h (3 Bft) 100,00 %
12.08.2016 23:42 14,6 C 95 % 1026,0 hPa 0,0 l/m 8,7 km/h (2 Bft) S-SW 200 0 min 0,000 mm 0,0 UV-I 0 W/m 13,8 C 13,3 C 16,1 km/h (3 Bft) 100,00 %
12.08.2016 23:44 14,6 C 95 % 1026,0 hPa 0,0 l/m 8,0 km/h (2 Bft) S 184 0 min 0,000 mm 0,0 UV-I 0 W/m 13,8 C 13,7 C 12,9 km/h (3 Bft) 97,87 %
12.08.2016 23:46 14,6 C 95 % 1025,9 hPa 0,0 l/m 7,2 km/h (2 Bft) SW 219 0 min 0,000 mm 0,0 UV-I 0 W/m 13,8 C 14,1 C 9,7 km/h (2 Bft) 100,00 %
12.08.2016 23:48 14,6 C 95 % 1025,9 hPa 0,0 l/m 9,1 km/h (2 Bft) SW 231 0 min 0,000 mm 0,0 UV-I 0 W/m 13,8 C 13,1 C 14,5 km/h (3 Bft) 100,00 %
12.08.2016 23:50 14,6 C 95 % 1026,0 hPa 0,0 l/m 9,3 km/h (2 Bft) W-SW 240 0 min 0,000 mm 0,0 UV-I 0 W/m 13,8 C 13,0 C 14,5 km/h (3 Bft) 100,00 %
12.08.2016 23:52 14,6 C 95 % 1026,0 hPa 0,0 l/m 9,2 km/h (2 Bft) SW 224 0 min 0,000 mm 0,0 UV-I 0 W/m 13,8 C 13,1 C 16,1 km/h (3 Bft) 97,87 %
12.08.2016 23:54 14,6 C 95 % 1026,0 hPa 0,0 l/m 7,9 km/h (2 Bft) W-SW 252 0 min 0,000 mm 0,0 UV-I 0 W/m 13,8 C 13,7 C 12,9 km/h (3 Bft) 98,00 %
12.08.2016 23:56 14,6 C 95 % 1026,0 hPa 0,0 l/m 7,2 km/h (2 Bft) SW 225 0 min 0,000 mm 0,0 UV-I 0 W/m 13,8 C 14,1 C 11,3 km/h (2 Bft) 100,00 %
12.08.2016 23:58 14,6 C 95 % 1025,9 hPa 0,0 l/m 9,5 km/h (2 Bft) SW 227 0 min 0,000 mm 0,0 UV-I 0 W/m 13,8 C 12,9 C 14,5 km/h (3 Bft) 97,87 %
_ Min-Zeit 03:10 13:24 02:24 - 03:18 - - - - - - 02:50 11:00 03:50 20:46
Minimum _ 9,1 C 83 % 1022,6 hPa - 0,0 km/h (0 Bft) - - - - - - 7,8 C 6,7 C 0,0 km/h (0 Bft) 90,00 %
_ Max-Zeit 16:18 23:34 21:06 19:54 11:42 - - 00:00 14:02 13:46 13:46 23:34 19:52 11:42 00:00
Maximum _ 15,1 C 95 % 1026,1 hPa 0,2 l/m 25,1 km/h
W (4 Bft)
- - 0 min 0,152 mm 3,0 UV-I 401 W/m 13,8 C 14,4 C 38,6 km/h
W-SW (5 Bft)
100,00 %
Durchschnitt _ 12,8 C 89 % 1024,6 hPa #0,6 l/m 9,1 km/h (2 Bft) SW - #0 min. #0,940 mm 1,1 UV-I 98 W/m 11,0 C 11,0 C 14,5 km/h (3 Bft) 98,36 %